Time,TemperatureF,DewpointF,PressureIn,WindDirection,WindDirectionDegrees,WindSpeedMPH,WindSpeedGustMPH,Humidity,HourlyPrecipIn,Conditions,Clouds,dailyrainin,SoftwareType,DateUTC
2013-02-28 00:00:00,59.2,53.7,29.99,West,279,3.0,3.0,82,0.00,,---,0.00,VWS V14.01,2013-02-28 05:00:00,
2013-02-28 00:01:00,59.2,53.7,29.99,SW,236,1.0,3.0,82,0.00,,---,0.00,VWS V14.01,2013-02-28 05:01:00,
2013-02-28 00:02:00,59.2,53.7,29.99,WSW,240,1.0,1.0,82,0.00,,---,0.00,VWS V14.01,2013-02-28 05:02:00,
2013-02-28 00:06:00,59.2,53.7,29.99,NW,306,1.0,2.0,82,0.00,,---,0.00,VWS V14.01,2013-02-28 05:06:00,
2013-02-28 00:08:00,59.2,53.7,29.98,WSW,252,0.0,2.0,82,0.00,,---,0.00,VWS V14.01,2013-02-28 05:08:00,
2013-02-28 00:11:00,59.2,53.7,29.98,WSW,255,1.0,1.0,82,0.00,,---,0.00,VWS V14.01,2013-02-28 05:11:00,
2013-02-28 00:12:00,59.2,53.7,29.98,WSW,255,2.0,2.0,82,0.00,,---,0.00,VWS V14.01,2013-02-28 05:12:00,
2013-02-28 00:13:00,59.2,53.7,29.98,West,261,1.0,2.0,82,0.00,,---,0.00,VWS V14.01,2013-02-28 05:13:00,
2013-02-28 00:17:00,59.3,53.8,29.98,WSW,244,1.0,2.0,82,0.00,,---,0.00,VWS V14.01,2013-02-28 05:17:00,
2013-02-28 00:18:00,59.3,53.8,29.98,WSW,258,3.0,3.0,82,0.00,,---,0.00,VWS V14.01,2013-02-28 05:18:00,
2013-02-28 00:19:00,59.3,53.8,29.98,West,260,1.0,3.0,82,0.00,,---,0.00,VWS V14.01,2013-02-28 05:19:00,
2013-02-28 00:23:00,59.4,53.9,29.98,SW,225,0.0,3.0,82,0.00,,---,0.00,VWS V14.01,2013-02-28 05:23:00,
2013-02-28 00:24:00,59.4,53.9,29.98,SW,225,0.0,3.0,82,0.00,,---,0.00,VWS V14.01,2013-02-28 05:24:00,
2013-02-28 00:26:00,59.5,53.7,29.98,WNW,290,0.0,0.0,81,0.00,,---,0.00,VWS V14.01,2013-02-28 05:26:00,
2013-02-28 00:29:00,59.5,54.0,29.98,WNW,290,0.0,1.0,82,0.00,,---,0.00,VWS V14.01,2013-02-28 05:29:00,
2013-02-28 00:30:00,59.5,54.0,29.98,WNW,290,0.0,1.0,82,0.00,,---,0.00,VWS V14.01,2013-02-28 05:30:00,
2013-02-28 00:31:00,59.4,53.9,29.98,WSW,253,0.0,1.0,82,0.00,,---,0.00,VWS V14.01,2013-02-28 05:31:00,
2013-02-28 00:34:00,59.5,54.0,29.98,WSW,237,2.0,6.0,82,0.00,,---,0.00,VWS V14.01,2013-02-28 05:34:00,
2013-02-28 00:35:00,59.5,54.0,29.98,WSW,237,0.0,6.0,82,0.00,,---,0.00,VWS V14.01,2013-02-28 05:35:00,
2013-02-28 00:36:00,59.4,53.9,29.98,WSW,237,0.0,6.0,82,0.00,,---,0.00,VWS V14.01,2013-02-28 05:36:00,
2013-02-28 00:37:00,59.5,54.0,29.98,WSW,237,1.0,1.0,82,0.00,,---,0.00,VWS V14.01,2013-02-28 05:37:00,
2013-02-28 00:39:00,59.5,54.0,29.98,West,261,2.0,6.0,82,0.00,,---,0.00,VWS V14.01,2013-02-28 05:39:00,
2013-02-28 00:40:00,59.5,54.0,29.98,West,261,2.0,6.0,82,0.00,,---,0.00,VWS V14.01,2013-02-28 05:40:00,
2013-02-28 00:41:00,59.5,53.7,29.98,SSW,209,0.0,1.0,81,0.00,,---,0.00,VWS V14.01,2013-02-28 05:41:00,
2013-02-28 00:42:00,59.5,53.7,29.98,SSW,209,1.0,1.0,81,0.00,,---,0.00,VWS V14.01,2013-02-28 05:42:00,
2013-02-28 00:44:00,59.5,53.7,29.98,West,262,1.0,2.0,81,0.00,,---,0.00,VWS V14.01,2013-02-28 05:44:00,
2013-02-28 00:45:00,59.5,53.7,29.98,West,272,1.0,2.0,81,0.00,,---,0.00,VWS V14.01,2013-02-28 05:45:00,
2013-02-28 00:47:00,59.5,53.3,29.97,WSW,244,1.0,2.0,80,0.00,,---,0.00,VWS V14.01,2013-02-28 05:47:00,
2013-02-28 00:50:00,59.6,53.4,29.98,SW,229,0.0,2.0,80,0.00,,---,0.00,VWS V14.01,2013-02-28 05:50:00,
2013-02-28 00:51:00,59.6,53.8,29.98,SW,229,0.0,2.0,81,0.00,,---,0.00,VWS V14.01,2013-02-28 05:51:00,
2013-02-28 00:52:00,59.6,53.4,29.98,SW,229,0.0,1.0,80,0.00,,---,0.00,VWS V14.01,2013-02-28 05:52:00,
2013-02-28 00:55:00,59.6,53.4,29.98,West,267,0.0,5.0,80,0.00,,---,0.00,VWS V14.01,2013-02-28 05:55:00,
2013-02-28 00:56:00,59.6,53.4,29.98,West,267,0.0,5.0,80,0.00,,---,0.00,VWS V14.01,2013-02-28 05:56:00,
2013-02-28 00:57:00,59.5,53.3,29.98,West,269,1.0,2.0,80,0.00,,---,0.00,VWS V14.01,2013-02-28 05:57:00,
2013-02-28 00:58:00,59.5,53.3,29.98,West,277,0.0,2.0,80,0.00,,---,0.00,VWS V14.01,2013-02-28 05:58:00,
2013-02-28 01:00:00,59.5,53.3,29.98,West,277,0.0,2.0,80,0.00,,---,0.00,VWS V14.01,2013-02-28 06:00:00,
2013-02-28 01:01:00,59.5,53.7,29.98,WNW,283,0.0,2.0,81,0.00,,---,0.00,VWS V14.01,2013-02-28 06:01:00,
2013-02-28 01:02:00,59.5,53.7,29.98,WNW,283,0.0,2.0,81,0.00,,---,0.00,VWS V14.01,2013-02-28 06:02:00,
2013-02-28 01:05:00,59.4,53.2,29.98,SW,215,0.0,3.0,80,0.00,,---,0.00,VWS V14.01,2013-02-28 06:05:00,
2013-02-28 01:06:00,59.4,53.2,29.98,SW,215,0.0,3.0,80,0.00,,---,0.00,VWS V14.01,2013-02-28 06:06:00,
2013-02-28 01:08:00,59.4,53.6,29.98,West,259,1.0,1.0,81,0.00,,---,0.00,VWS V14.01,2013-02-28 06:08:00,
2013-02-28 01:10:00,59.4,53.6,29.98,West,281,3.0,3.0,81,0.00,,---,0.00,VWS V14.01,2013-02-28 06:10:00,
2013-02-28 01:11:00,59.4,53.2,29.98,West,281,0.0,3.0,80,0.00,,---,0.00,VWS V14.01,2013-02-28 06:11:00,
2013-02-28 01:13:00,59.5,53.3,29.98,West,265,2.0,3.0,80,0.00,,---,0.00,VWS V14.01,2013-02-28 06:13:00,
2013-02-28 01:15:00,59.5,53.3,29.98,West,265,1.0,3.0,80,0.00,,---,0.00,VWS V14.01,2013-02-28 06:15:00,
2013-02-28 01:16:00,59.6,53.4,29.98,South,191,0.0,1.0,80,0.00,,---,0.00,VWS V14.01,2013-02-28 06:16:00,
2013-02-28 01:18:00,59.6,53.4,29.98,South,191,1.0,2.0,80,0.00,,---,0.00,VWS V14.01,2013-02-28 06:18:00,
2013-02-28 01:19:00,59.6,53.4,29.98,South,191,1.0,2.0,80,0.00,,---,0.00,VWS V14.01,2013-02-28 06:19:00,
2013-02-28 01:20:00,59.6,53.4,29.97,South,191,0.0,2.0,80,0.00,,---,0.00,VWS V14.01,2013-02-28 06:20:00,
2013-02-28 01:21:00,59.6,53.4,29.97,South,191,0.0,0.0,80,0.00,,---,0.00,VWS V14.01,2013-02-28 06:21:00,
2013-02-28 01:24:00,59.5,53.3,29.97,SW,220,2.0,2.0,80,0.00,,---,0.00,VWS V14.01,2013-02-28 06:24:00,
2013-02-28 01:25:00,59.5,53.7,29.97,SW,220,0.0,3.0,81,0.00,,---,0.00,VWS V14.01,2013-02-28 06:25:00,
2013-02-28 01:27:00,59.5,53.7,29.97,SW,220,1.0,2.0,81,0.00,,---,0.00,VWS V14.01,2013-02-28 06:27:00,
2013-02-28 01:29:00,59.4,53.2,29.97,SW,220,1.0,2.0,80,0.00,,---,0.00,VWS V14.01,2013-02-28 06:29:00,
2013-02-28 01:30:00,59.4,53.2,29.97,SW,220,0.0,2.0,80,0.00,,---,0.00,VWS V14.01,2013-02-28 06:30:00,
2013-02-28 01:33:00,59.4,53.6,29.97,West,269,1.0,4.0,81,0.00,,---,0.00,VWS V14.01,2013-02-28 06:33:00,
2013-02-28 01:34:00,59.4,53.6,29.97,West,267,1.0,4.0,81,0.00,,---,0.00,VWS V14.01,2013-02-28 06:34:00,
2013-02-28 01:35:00,59.4,53.6,29.97,West,267,0.0,4.0,81,0.00,,---,0.00,VWS V14.01,2013-02-28 06:35:00,
2013-02-28 01:37:00,59.3,53.5,29.97,West,263,0.0,1.0,81,0.00,,---,0.00,VWS V14.01,2013-02-28 06:37:00,
2013-02-28 01:38:00,59.3,53.5,29.97,West,274,1.0,3.0,81,0.00,,---,0.00,VWS V14.01,2013-02-28 06:38:00,
2013-02-28 01:40:00,59.3,53.5,29.97,West,274,0.0,3.0,81,0.00,,---,0.00,VWS V14.01,2013-02-28 06:40:00,
2013-02-28 01:41:00,59.3,53.5,29.97,West,263,0.0,0.0,81,0.00,,---,0.00,VWS V14.01,2013-02-28 06:41:00,
2013-02-28 01:43:00,59.3,53.5,29.97,WSW,246,0.0,2.0,81,0.00,,---,0.00,VWS V14.01,2013-02-28 06:43:00,
2013-02-28 01:44:00,59.4,53.6,29.97,WSW,246,0.0,2.0,81,0.00,,---,0.00,VWS V14.01,2013-02-28 06:44:00,
2013-02-28 01:45:00,59.4,53.6,29.97,WSW,246,0.0,2.0,81,0.00,,---,0.00,VWS V14.01,2013-02-28 06:45:00,
2013-02-28 01:47:00,59.4,53.6,29.97,WSW,246,0.0,0.0,81,0.00,,---,0.00,VWS V14.01,2013-02-28 06:47:00,
2013-02-28 01:50:00,59.3,53.5,29.97,WSW,246,0.0,0.0,81,0.00,,---,0.00,VWS V14.01,2013-02-28 06:50:00,
2013-02-28 01:51:00,59.3,53.5,29.97,WSW,246,0.0,0.0,81,0.00,,---,0.00,VWS V14.01,2013-02-28 06:51:00,
2013-02-28 01:54:00,59.2,53.4,29.97,WSW,246,0.0,0.0,81,0.00,,---,0.00,VWS V14.01,2013-02-28 06:54:00,
2013-02-28 01:56:00,59.1,53.3,29.97,WSW,246,0.0,1.0,81,0.00,,---,0.00,VWS V14.01,2013-02-28 06:56:00,
2013-02-28 01:57:00,59.1,53.3,29.97,WSW,244,1.0,2.0,81,0.00,,---,0.00,VWS V14.01,2013-02-28 06:57:00,
2013-02-28 01:58:00,59.1,53.3,29.97,WSW,238,0.0,2.0,81,0.00,,---,0.00,VWS V14.01,2013-02-28 06:58:00,
2013-02-28 01:59:00,59.1,53.3,29.97,WSW,238,0.0,2.0,81,0.00,,---,0.00,VWS V14.01,2013-02-28 06:59:00,
2013-02-28 02:01:00,59.0,53.2,29.97,WSW,244,0.0,1.0,81,0.00,,---,0.00,VWS V14.01,2013-02-28 07:01:00,
2013-02-28 02:03:00,59.0,53.2,29.97,WSW,244,0.0,1.0,81,0.00,,---,0.00,VWS V14.01,2013-02-28 07:03:00,
2013-02-28 02:04:00,59.0,53.2,29.97,WSW,244,0.0,1.0,81,0.00,,---,0.00,VWS V14.01,2013-02-28 07:04:00,
2013-02-28 02:07:00,59.0,53.2,29.97,WSW,239,0.0,1.0,81,0.00,,---,0.00,VWS V14.01,2013-02-28 07:07:00,
2013-02-28 02:09:00,58.9,53.1,29.97,WSW,239,1.0,1.0,81,0.00,,---,0.00,VWS V14.01,2013-02-28 07:09:00,
2013-02-28 02:13:00,58.9,53.1,29.97,West,273,1.0,4.0,81,0.00,,---,0.00,VWS V14.01,2013-02-28 07:13:00,
2013-02-28 02:15:00,59.0,53.2,29.97,SW,216,0.0,4.0,81,0.00,,---,0.00,VWS V14.01,2013-02-28 07:15:00,
2013-02-28 02:16:00,59.0,53.2,29.97,SW,220,1.0,1.0,81,0.00,,---,0.00,VWS V14.01,2013-02-28 07:16:00,
2013-02-28 02:19:00,59.1,52.9,29.97,West,267,1.0,2.0,80,0.00,,---,0.00,VWS V14.01,2013-02-28 07:19:00,
2013-02-28 02:20:00,59.2,53.0,29.97,West,263,1.0,4.0,80,0.00,,---,0.00,VWS V14.01,2013-02-28 07:20:00,
2013-02-28 02:21:00,59.2,53.0,29.97,West,263,1.0,1.0,80,0.00,,---,0.00,VWS V14.01,2013-02-28 07:21:00,
2013-02-28 02:24:00,59.3,53.1,29.97,SW,234,1.0,4.0,80,0.00,,---,0.00,VWS V14.01,2013-02-28 07:24:00,
2013-02-28 02:26:00,59.4,53.2,29.97,SW,234,0.0,4.0,80,0.00,,---,0.00,VWS V14.01,2013-02-28 07:26:00,
2013-02-28 02:27:00,59.4,53.2,29.97,SW,234,0.0,1.0,80,0.00,,---,0.00,VWS V14.01,2013-02-28 07:27:00,
2013-02-28 02:30:00,59.5,53.3,29.97,WSW,239,0.0,3.0,80,0.00,,---,0.00,VWS V14.01,2013-02-28 07:30:00,
2013-02-28 02:31:00,59.5,53.3,29.97,WSW,239,1.0,3.0,80,0.00,,---,0.00,VWS V14.01,2013-02-28 07:31:00,
2013-02-28 02:32:00,59.5,53.3,29.97,WSW,239,0.0,1.0,80,0.00,,---,0.00,VWS V14.01,2013-02-28 07:32:00,
2013-02-28 02:33:00,59.6,53.4,29.97,NW,313,1.0,1.0,80,0.00,,---,0.00,VWS V14.01,2013-02-28 07:33:00,
2013-02-28 02:35:00,59.6,53.4,29.97,West,275,0.0,2.0,80,0.00,,---,0.00,VWS V14.01,2013-02-28 07:35:00,
2013-02-28 02:36:00,59.6,53.4,29.97,West,275,0.0,2.0,80,0.00,,---,0.00,VWS V14.01,2013-02-28 07:36:00,
2013-02-28 02:38:00,59.6,53.4,29.97,WSW,248,2.0,3.0,80,0.00,,---,0.00,VWS V14.01,2013-02-28 07:38:00,
2013-02-28 02:39:00,59.6,53.4,29.97,West,268,0.0,3.0,80,0.00,,---,0.00,VWS V14.01,2013-02-28 07:39:00,
2013-02-28 02:40:00,59.7,53.5,29.97,SW,228,2.0,3.0,80,0.00,,---,0.00,VWS V14.01,2013-02-28 07:40:00,
2013-02-28 02:42:00,59.8,54.0,29.97,WNW,284,1.0,3.0,81,0.00,,---,0.00,VWS V14.01,2013-02-28 07:42:00,
2013-02-28 02:44:00,59.8,53.6,29.97,West,281,0.0,3.0,80,0.00,,---,0.00,VWS V14.01,2013-02-28 07:44:00,
2013-02-28 02:45:00,59.9,53.7,29.96,West,281,2.0,3.0,80,0.00,,---,0.00,VWS V14.01,2013-02-28 07:45:00,
2013-02-28 02:48:00,60.0,53.8,29.96,NW,313,0.0,6.0,80,0.00,,---,0.00,VWS V14.01,2013-02-28 07:48:00,
2013-02-28 02:50:00,60.1,53.9,29.95,WNW,290,2.0,6.0,80,0.00,,---,0.00,VWS V14.01,2013-02-28 07:50:00,
2013-02-28 02:51:00,60.1,53.9,29.95,WNW,290,1.0,6.0,80,0.00,,---,0.00,VWS V14.01,2013-02-28 07:51:00,
2013-02-28 02:54:00,60.1,53.9,29.95,WNW,290,0.0,1.0,80,0.00,,---,0.00,VWS V14.01,2013-02-28 07:54:00,
2013-02-28 02:55:00,60.1,53.9,29.95,WNW,290,0.0,1.0,80,0.00,,---,0.00,VWS V14.01,2013-02-28 07:55:00,
2013-02-28 02:57:00,60.1,53.9,29.95,West,274,0.0,3.0,80,0.00,,---,0.00,VWS V14.01,2013-02-28 07:57:00,
2013-02-28 02:58:00,60.1,53.9,29.95,West,274,0.0,3.0,80,0.00,,---,0.00,VWS V14.01,2013-02-28 07:58:00,
2013-02-28 03:01:00,60.0,53.8,29.95,West,274,0.0,3.0,80,0.00,,---,0.00,VWS V14.01,2013-02-28 08:01:00,
2013-02-28 03:02:00,60.0,53.8,29.95,West,273,1.0,1.0,80,0.00,,---,0.00,VWS V14.01,2013-02-28 08:02:00,
2013-02-28 03:03:00,60.0,53.8,29.95,West,273,0.0,1.0,80,0.00,,---,0.00,VWS V14.01,2013-02-28 08:03:00,
2013-02-28 03:05:00,59.9,53.7,29.95,West,273,0.0,1.0,80,0.00,,---,0.00,VWS V14.01,2013-02-28 08:05:00,
2013-02-28 03:06:00,59.9,53.7,29.95,West,273,1.0,1.0,80,0.00,,---,0.00,VWS V14.01,2013-02-28 08:06:00,
2013-02-28 03:07:00,59.8,53.6,29.95,West,273,0.0,1.0,80,0.00,,---,0.00,VWS V14.01,2013-02-28 08:07:00,
2013-02-28 03:09:00,59.8,53.6,29.95,West,273,0.0,1.0,80,0.00,,---,0.00,VWS V14.01,2013-02-28 08:09:00,
2013-02-28 03:10:00,59.8,53.6,29.95,West,273,0.0,1.0,80,0.00,,---,0.00,VWS V14.01,2013-02-28 08:10:00,
2013-02-28 03:12:00,59.7,53.5,29.95,West,273,0.0,0.0,80,0.00,,---,0.00,VWS V14.01,2013-02-28 08:12:00,
2013-02-28 03:13:00,59.6,53.4,29.95,West,273,0.0,1.0,80,0.00,,---,0.00,VWS V14.01,2013-02-28 08:13:00,
2013-02-28 03:14:00,59.6,53.4,29.95,SW,236,3.0,3.0,80,0.00,,---,0.00,VWS V14.01,2013-02-28 08:14:00,
2013-02-28 03:16:00,59.6,53.4,29.95,SW,236,1.0,3.0,80,0.00,,---,0.00,VWS V14.01,2013-02-28 08:16:00,
2013-02-28 03:19:00,59.5,53.7,29.95,SW,236,0.0,1.0,81,0.00,,---,0.00,VWS V14.01,2013-02-28 08:19:00,
2013-02-28 03:20:00,59.5,53.7,29.95,SW,236,0.0,1.0,81,0.00,,---,0.00,VWS V14.01,2013-02-28 08:20:00,
2013-02-28 03:21:00,59.4,53.6,29.95,WSW,243,0.0,0.0,81,0.00,,---,0.00,VWS V14.01,2013-02-28 08:21:00,
2013-02-28 03:24:00,59.3,53.5,29.95,WSW,243,0.0,1.0,81,0.00,,---,0.00,VWS V14.01,2013-02-28 08:24:00,
2013-02-28 03:26:00,59.1,53.3,29.96,WSW,243,0.0,0.0,81,0.00,,---,0.00,VWS V14.01,2013-02-28 08:26:00,
2013-02-28 03:27:00,59.1,53.3,29.96,WSW,243,0.0,0.0,81,0.00,,---,0.00,VWS V14.01,2013-02-28 08:27:00,
2013-02-28 03:28:00,59.0,53.2,29.96,WSW,243,0.0,0.0,81,0.00,,---,0.00,VWS V14.01,2013-02-28 08:28:00,
2013-02-28 03:31:00,58.9,53.1,29.96,WSW,243,0.0,0.0,81,0.00,,---,0.00,VWS V14.01,2013-02-28 08:31:00,
2013-02-28 03:33:00,58.7,53.2,29.96,WSW,243,0.0,0.0,82,0.00,,---,0.00,VWS V14.01,2013-02-28 08:33:00,
2013-02-28 03:35:00,58.5,53.0,29.96,WSW,243,0.0,0.0,82,0.00,,---,0.00,VWS V14.01,2013-02-28 08:35:00,
2013-02-28 03:36:00,58.5,53.0,29.96,WSW,243,0.0,0.0,82,0.00,,---,0.00,VWS V14.01,2013-02-28 08:36:00,
2013-02-28 03:38:00,58.3,52.8,29.96,WSW,243,0.0,0.0,82,0.00,,---,0.00,VWS V14.01,2013-02-28 08:38:00,
2013-02-28 03:40:00,58.2,52.7,29.96,WSW,243,0.0,0.0,82,0.00,,---,0.00,VWS V14.01,2013-02-28 08:40:00,
2013-02-28 03:41:00,58.1,52.6,29.96,WSW,243,0.0,0.0,82,0.00,,---,0.00,VWS V14.01,2013-02-28 08:41:00,
2013-02-28 03:44:00,57.9,52.8,29.96,WSW,243,0.0,1.0,83,0.00,,---,0.00,VWS V14.01,2013-02-28 08:44:00,
2013-02-28 03:47:00,57.7,52.6,29.96,WSW,243,0.0,0.0,83,0.00,,---,0.00,VWS V14.01,2013-02-28 08:47:00,
2013-02-28 03:49:00,57.6,52.5,29.96,WSW,243,0.0,0.0,83,0.00,,---,0.00,VWS V14.01,2013-02-28 08:49:00,
2013-02-28 03:50:00,57.5,52.4,29.96,WSW,243,0.0,0.0,83,0.00,,---,0.00,VWS V14.01,2013-02-28 08:50:00,
2013-02-28 03:52:00,57.4,52.6,29.95,WSW,243,0.0,0.0,84,0.00,,---,0.00,VWS V14.01,2013-02-28 08:52:00,
2013-02-28 03:53:00,57.3,52.5,29.95,WSW,243,0.0,0.0,84,0.00,,---,0.00,VWS V14.01,2013-02-28 08:53:00,
2013-02-28 03:55:00,57.2,52.4,29.95,WSW,243,0.0,0.0,84,0.00,,---,0.00,VWS V14.01,2013-02-28 08:55:00,
2013-02-28 03:57:00,57.1,52.3,29.95,WSW,243,0.0,0.0,84,0.00,,---,0.00,VWS V14.01,2013-02-28 08:57:00,
2013-02-28 03:58:00,57.0,52.2,29.95,WSW,243,0.0,0.0,84,0.00,,---,0.00,VWS V14.01,2013-02-28 08:58:00,
2013-02-28 04:01:00,56.9,52.4,29.95,WSW,243,0.0,0.0,85,0.00,,---,0.00,VWS V14.01,2013-02-28 09:01:00,
2013-02-28 04:03:00,56.8,52.3,29.95,WSW,243,0.0,0.0,85,0.00,,---,0.00,VWS V14.01,2013-02-28 09:03:00,
2013-02-28 04:05:00,56.7,52.2,29.95,WSW,243,0.0,0.0,85,0.00,,---,0.00,VWS V14.01,2013-02-28 09:05:00,
2013-02-28 04:06:00,56.7,52.2,29.95,WSW,243,0.0,0.0,85,0.00,,---,0.00,VWS V14.01,2013-02-28 09:06:00,
2013-02-28 04:08:00,56.7,52.6,29.95,WSW,243,0.0,1.0,86,0.00,,---,0.00,VWS V14.01,2013-02-28 09:08:00,
2013-02-28 04:09:00,56.6,52.5,29.95,WSW,243,0.0,1.0,86,0.00,,---,0.00,VWS V14.01,2013-02-28 09:09:00,
2013-02-28 04:11:00,56.7,52.6,29.95,WSW,243,0.0,1.0,86,0.00,,---,0.00,VWS V14.01,2013-02-28 09:11:00,
2013-02-28 04:14:00,56.6,52.5,29.95,WSW,243,0.0,0.0,86,0.00,,---,0.00,VWS V14.01,2013-02-28 09:14:00,
2013-02-28 04:15:00,56.6,52.5,29.95,WSW,243,0.0,0.0,86,0.00,,---,0.00,VWS V14.01,2013-02-28 09:15:00,
2013-02-28 04:16:00,56.6,52.5,29.95,WSW,253,0.0,1.0,86,0.00,,---,0.00,VWS V14.01,2013-02-28 09:16:00,
2013-02-28 04:19:00,56.5,52.4,29.95,WSW,253,0.0,1.0,86,0.00,,---,0.00,VWS V14.01,2013-02-28 09:19:00,
2013-02-28 04:21:00,56.4,52.3,29.95,WSW,253,0.0,0.0,86,0.00,,---,0.00,VWS V14.01,2013-02-28 09:21:00,
2013-02-28 04:22:00,56.5,52.4,29.95,WSW,253,0.0,0.0,86,0.00,,---,0.00,VWS V14.01,2013-02-28 09:22:00,
2013-02-28 04:27:00,56.5,53.0,29.96,SW,215,1.0,1.0,88,0.00,,---,0.00,VWS V14.01,2013-02-28 09:27:00,
2013-02-28 04:28:00,56.6,53.1,29.96,SW,215,1.0,2.0,88,0.00,,---,0.00,VWS V14.01,2013-02-28 09:28:00,
2013-02-28 04:32:00,56.6,53.1,29.96,SSW,207,0.0,1.0,88,0.00,,---,0.00,VWS V14.01,2013-02-28 09:32:00,
2013-02-28 04:33:00,56.7,53.2,29.96,SSW,207,1.0,2.0,88,0.00,,---,0.00,VWS V14.01,2013-02-28 09:33:00,
2013-02-28 04:37:00,56.8,53.0,29.96,SSW,207,0.0,0.0,87,0.00,,---,0.00,VWS V14.01,2013-02-28 09:37:00,
2013-02-28 04:38:00,56.8,53.0,29.96,SSW,207,0.0,0.0,87,0.00,,---,0.00,VWS V14.01,2013-02-28 09:38:00,
2013-02-28 04:40:00,56.7,52.9,29.96,SSW,207,0.0,0.0,87,0.00,,---,0.00,VWS V14.01,2013-02-28 09:40:00,
2013-02-28 04:43:00,56.6,52.8,29.96,SSW,207,0.0,0.0,87,0.00,,---,0.00,VWS V14.01,2013-02-28 09:43:00,
2013-02-28 04:44:00,56.6,52.8,29.96,SSW,207,0.0,0.0,87,0.00,,---,0.00,VWS V14.01,2013-02-28 09:44:00,
2013-02-28 04:45:00,56.6,52.8,29.96,SSW,207,0.0,0.0,87,0.00,,---,0.00,VWS V14.01,2013-02-28 09:45:00,
2013-02-28 04:46:00,56.5,53.0,29.96,SSW,207,0.0,0.0,88,0.00,,---,0.00,VWS V14.01,2013-02-28 09:46:00,
2013-02-28 04:49:00,56.4,52.9,29.96,SSW,207,0.0,1.0,88,0.00,,---,0.00,VWS V14.01,2013-02-28 09:49:00,
2013-02-28 04:51:00,56.3,52.8,29.96,SSW,207,0.0,1.0,88,0.00,,---,0.00,VWS V14.01,2013-02-28 09:51:00,
2013-02-28 04:55:00,56.2,53.0,29.97,SSW,207,0.0,0.0,89,0.00,,---,0.00,VWS V14.01,2013-02-28 09:55:00,
2013-02-28 04:56:00,56.2,53.0,29.97,SSW,207,0.0,0.0,89,0.00,,---,0.00,VWS V14.01,2013-02-28 09:56:00,
2013-02-28 04:57:00,56.1,52.9,29.97,SSW,207,0.0,0.0,89,0.00,,---,0.00,VWS V14.01,2013-02-28 09:57:00,
2013-02-28 05:01:00,55.9,52.7,29.97,SSW,207,0.0,0.0,89,0.00,,---,0.00,VWS V14.01,2013-02-28 10:01:00,
2013-02-28 05:02:00,55.9,52.7,29.97,SSW,207,0.0,0.0,89,0.00,,---,0.00,VWS V14.01,2013-02-28 10:02:00,
2013-02-28 05:04:00,55.8,52.6,29.97,SSW,207,0.0,0.0,89,0.00,,---,0.00,VWS V14.01,2013-02-28 10:04:00,
2013-02-28 05:07:00,55.7,52.5,29.97,SSW,207,0.0,0.0,89,0.00,,---,0.00,VWS V14.01,2013-02-28 10:07:00,
2013-02-28 05:11:00,55.6,52.4,29.97,SSW,207,0.0,0.0,89,0.00,,---,0.00,VWS V14.01,2013-02-28 10:11:00,
2013-02-28 05:13:00,55.5,52.3,29.97,SSW,207,0.0,0.0,89,0.00,,---,0.00,VWS V14.01,2013-02-28 10:13:00,
2013-02-28 05:16:00,55.4,52.5,29.97,SSW,207,0.0,0.0,90,0.00,,---,0.00,VWS V14.01,2013-02-28 10:16:00,
2013-02-28 05:18:00,55.3,52.4,29.96,SSW,207,0.0,0.0,90,0.00,,---,0.00,VWS V14.01,2013-02-28 10:18:00,
2013-02-28 05:19:00,55.3,52.4,29.96,SSW,207,0.0,0.0,90,0.00,,---,0.00,VWS V14.01,2013-02-28 10:19:00,
2013-02-28 05:21:00,55.3,52.4,29.97,SSW,207,0.0,0.0,90,0.00,,---,0.00,VWS V14.01,2013-02-28 10:21:00,
2013-02-28 05:23:00,55.2,52.6,29.97,SSW,207,0.0,0.0,91,0.00,,---,0.00,VWS V14.01,2013-02-28 10:23:00,
2013-02-28 05:24:00,55.2,52.6,29.97,SSW,207,0.0,0.0,91,0.00,,---,0.00,VWS V14.01,2013-02-28 10:24:00,
2013-02-28 05:25:00,55.2,52.6,29.97,SSW,207,0.0,0.0,91,0.00,,---,0.00,VWS V14.01,2013-02-28 10:25:00,
2013-02-28 05:26:00,55.2,52.6,29.97,SSW,207,0.0,0.0,91,0.00,,---,0.00,VWS V14.01,2013-02-28 10:26:00,
2013-02-28 05:29:00,55.1,52.5,29.97,SSW,207,0.0,0.0,91,0.00,,---,0.00,VWS V14.01,2013-02-28 10:29:00,
2013-02-28 05:30:00,55.1,52.5,29.97,SSW,207,0.0,0.0,91,0.00,,---,0.00,VWS V14.01,2013-02-28 10:30:00,
2013-02-28 05:31:00,55.0,52.4,29.97,SSW,207,0.0,0.0,91,0.00,,---,0.00,VWS V14.01,2013-02-28 10:31:00,
2013-02-28 05:32:00,55.0,52.4,29.97,SSW,207,0.0,0.0,91,0.00,,---,0.00,VWS V14.01,2013-02-28 10:32:00,
2013-02-28 05:34:00,54.9,52.3,29.97,SSW,207,0.0,0.0,91,0.00,,---,0.00,VWS V14.01,2013-02-28 10:34:00,
2013-02-28 05:35:00,54.9,52.3,29.97,SSW,207,0.0,0.0,91,0.00,,---,0.00,VWS V14.01,2013-02-28 10:35:00,
2013-02-28 05:37:00,54.9,52.3,29.97,SSW,207,0.0,0.0,91,0.00,,---,0.00,VWS V14.01,2013-02-28 10:37:00,
2013-02-28 05:38:00,54.8,52.2,29.97,SSW,207,0.0,0.0,91,0.00,,---,0.00,VWS V14.01,2013-02-28 10:38:00,
2013-02-28 05:40:00,54.8,52.2,29.97,SSW,207,0.0,0.0,91,0.00,,---,0.00,VWS V14.01,2013-02-28 10:40:00,
2013-02-28 05:43:00,54.7,52.1,29.97,SSW,207,0.0,0.0,91,0.00,,---,0.00,VWS V14.01,2013-02-28 10:43:00,
2013-02-28 05:44:00,54.7,52.1,29.97,SSW,207,0.0,0.0,91,0.00,,---,0.00,VWS V14.01,2013-02-28 10:44:00,
2013-02-28 05:45:00,54.7,52.1,29.97,SSW,207,0.0,0.0,91,0.00,,---,0.00,VWS V14.01,2013-02-28 10:45:00,
2013-02-28 05:48:00,54.7,52.4,29.97,SSW,207,0.0,0.0,92,0.00,,---,0.00,VWS V14.01,2013-02-28 10:48:00,
2013-02-28 05:50:00,54.7,52.4,29.97,SSW,207,0.0,0.0,92,0.00,,---,0.00,VWS V14.01,2013-02-28 10:50:00,
2013-02-28 05:51:00,54.7,52.4,29.97,SSW,207,0.0,0.0,92,0.00,,---,0.00,VWS V14.01,2013-02-28 10:51:00,
2013-02-28 05:54:00,54.6,52.3,29.97,SSW,207,0.0,0.0,92,0.00,,---,0.00,VWS V14.01,2013-02-28 10:54:00,
2013-02-28 05:55:00,54.6,52.3,29.97,SSW,207,0.0,0.0,92,0.00,,---,0.00,VWS V14.01,2013-02-28 10:55:00,
2013-02-28 05:56:00,54.6,52.3,29.97,SSW,207,0.0,0.0,92,0.00,,---,0.00,VWS V14.01,2013-02-28 10:56:00,
2013-02-28 05:57:00,54.6,52.3,29.97,SSW,207,0.0,0.0,92,0.00,,---,0.00,VWS V14.01,2013-02-28 10:57:00,
2013-02-28 06:00:00,54.5,52.2,29.97,SSW,207,0.0,0.0,92,0.00,,---,0.00,VWS V14.01,2013-02-28 11:00:00,
2013-02-28 06:01:00,54.5,52.2,29.97,SSW,207,0.0,0.0,92,0.00,,---,0.00,VWS V14.01,2013-02-28 11:01:00,
2013-02-28 06:02:00,54.5,52.2,29.97,SSW,207,0.0,0.0,92,0.00,,---,0.00,VWS V14.01,2013-02-28 11:02:00,
2013-02-28 06:05:00,54.4,52.1,29.97,SSW,207,0.0,0.0,92,0.00,,---,0.00,VWS V14.01,2013-02-28 11:05:00,
2013-02-28 06:06:00,54.4,52.4,29.97,SSW,207,0.0,0.0,93,0.00,,---,0.00,VWS V14.01,2013-02-28 11:06:00,
2013-02-28 06:07:00,54.4,52.4,29.97,WSW,256,2.0,2.0,93,0.00,,---,0.00,VWS V14.01,2013-02-28 11:07:00,
2013-02-28 06:08:00,54.4,52.4,29.97,WSW,256,0.0,2.0,93,0.00,,---,0.00,VWS V14.01,2013-02-28 11:08:00,
2013-02-28 06:10:00,54.5,52.5,29.97,WSW,256,1.0,2.0,93,0.00,,---,0.00,VWS V14.01,2013-02-28 11:10:00,
2013-02-28 06:12:00,54.4,52.4,29.97,WSW,256,0.0,0.0,93,0.00,,---,0.00,VWS V14.01,2013-02-28 11:12:00,
2013-02-28 06:13:00,54.4,52.4,29.97,WSW,256,0.0,0.0,93,0.00,,---,0.00,VWS V14.01,2013-02-28 11:13:00,
2013-02-28 06:14:00,54.4,52.4,29.97,WSW,256,0.0,0.0,93,0.00,,---,0.00,VWS V14.01,2013-02-28 11:14:00,
2013-02-28 06:15:00,54.4,52.4,29.97,WSW,256,0.0,0.0,93,0.00,,---,0.00,VWS V14.01,2013-02-28 11:15:00,
2013-02-28 06:18:00,54.4,52.4,29.97,WSW,256,0.0,0.0,93,0.00,,---,0.00,VWS V14.01,2013-02-28 11:18:00,
2013-02-28 06:19:00,54.4,52.4,29.97,WSW,256,0.0,0.0,93,0.00,,---,0.00,VWS V14.01,2013-02-28 11:19:00,
2013-02-28 06:20:00,54.4,52.4,29.97,WSW,256,0.0,0.0,93,0.00,,---,0.00,VWS V14.01,2013-02-28 11:20:00,
2013-02-28 06:21:00,54.4,52.4,29.97,WSW,256,0.0,0.0,93,0.00,,---,0.00,VWS V14.01,2013-02-28 11:21:00,
2013-02-28 06:23:00,54.5,52.5,29.97,WSW,256,0.0,0.0,93,0.00,,---,0.00,VWS V14.01,2013-02-28 11:23:00,
2013-02-28 06:24:00,54.4,52.4,29.97,WSW,256,0.0,0.0,93,0.00,,---,0.00,VWS V14.01,2013-02-28 11:24:00,
2013-02-28 06:25:00,54.4,52.4,29.97,WSW,256,0.0,0.0,93,0.00,,---,0.00,VWS V14.01,2013-02-28 11:25:00,
2013-02-28 06:26:00,54.4,52.4,29.97,WSW,256,0.0,0.0,93,0.00,,---,0.00,VWS V14.01,2013-02-28 11:26:00,
2013-02-28 06:28:00,54.4,52.4,29.97,WSW,256,0.0,0.0,93,0.00,,---,0.00,VWS V14.01,2013-02-28 11:28:00,
2013-02-28 06:30:00,54.4,52.4,29.98,WSW,256,0.0,0.0,93,0.00,,---,0.00,VWS V14.01,2013-02-28 11:30:00,
2013-02-28 06:31:00,54.4,52.4,29.98,WSW,256,0.0,0.0,93,0.00,,---,0.00,VWS V14.01,2013-02-28 11:31:00,
2013-02-28 06:32:00,54.4,52.4,29.98,WSW,256,0.0,0.0,93,0.00,,---,0.00,VWS V14.01,2013-02-28 11:32:00,
2013-02-28 06:34:00,54.4,52.4,29.98,WSW,256,0.0,0.0,93,0.00,,---,0.00,VWS V14.01,2013-02-28 11:34:00,
2013-02-28 06:35:00,54.3,52.3,29.98,WSW,256,0.0,0.0,93,0.00,,---,0.00,VWS V14.01,2013-02-28 11:35:00,
2013-02-28 06:36:00,54.4,52.4,29.98,WSW,256,0.0,0.0,93,0.00,,---,0.00,VWS V14.01,2013-02-28 11:36:00,
2013-02-28 06:38:00,54.3,52.3,29.98,WSW,256,0.0,0.0,93,0.00,,---,0.00,VWS V14.01,2013-02-28 11:38:00,
2013-02-28 06:41:00,54.3,52.3,29.98,WSW,256,0.0,0.0,93,0.00,,---,0.00,VWS V14.01,2013-02-28 11:41:00,
2013-02-28 06:42:00,54.3,52.3,29.98,WSW,256,0.0,0.0,93,0.00,,---,0.00,VWS V14.01,2013-02-28 11:42:00,
2013-02-28 06:43:00,54.3,52.3,29.98,WSW,256,0.0,0.0,93,0.00,,---,0.00,VWS V14.01,2013-02-28 11:43:00,
2013-02-28 06:46:00,54.4,52.7,29.98,WSW,256,0.0,0.0,94,0.00,,---,0.00,VWS V14.01,2013-02-28 11:46:00,
2013-02-28 06:47:00,54.5,52.5,29.98,WSW,256,0.0,0.0,93,0.00,,---,0.00,VWS V14.01,2013-02-28 11:47:00,
2013-02-28 06:48:00,54.5,52.5,29.98,WSW,256,0.0,0.0,93,0.00,,---,0.00,VWS V14.01,2013-02-28 11:48:00,
2013-02-28 06:52:00,54.7,52.7,29.98,WSW,256,0.0,0.0,93,0.00,,---,0.00,VWS V14.01,2013-02-28 11:52:00,
2013-02-28 06:54:00,54.8,52.8,29.98,WSW,256,0.0,0.0,93,0.00,,---,0.00,VWS V14.01,2013-02-28 11:54:00,
2013-02-28 06:57:00,54.8,52.5,29.98,WSW,256,0.0,0.0,92,0.00,,---,0.00,VWS V14.01,2013-02-28 11:57:00,
2013-02-28 06:58:00,54.8,52.5,29.98,WSW,256,0.0,0.0,92,0.00,,---,0.00,VWS V14.01,2013-02-28 11:58:00,
2013-02-28 06:59:00,54.8,52.5,29.98,WSW,256,0.0,0.0,92,0.00,,---,0.00,VWS V14.01,2013-02-28 11:59:00,
2013-02-28 07:00:00,54.8,52.5,29.98,WSW,256,0.0,0.0,92,0.00,,---,0.00,VWS V14.01,2013-02-28 12:00:00,
2013-02-28 07:02:00,54.8,52.5,29.98,WSW,256,0.0,0.0,92,0.00,,---,0.00,VWS V14.01,2013-02-28 12:02:00,
2013-02-28 07:04:00,54.8,52.5,29.98,WSW,256,0.0,0.0,92,0.00,,---,0.00,VWS V14.01,2013-02-28 12:04:00,
2013-02-28 07:05:00,54.8,52.8,29.98,WSW,256,0.0,0.0,93,0.00,,---,0.00,VWS V14.01,2013-02-28 12:05:00,
2013-02-28 07:08:00,54.9,52.9,29.98,WSW,256,0.0,0.0,93,0.00,,---,0.00,VWS V14.01,2013-02-28 12:08:00,
2013-02-28 07:09:00,55.0,53.0,29.98,WSW,256,0.0,0.0,93,0.00,,---,0.00,VWS V14.01,2013-02-28 12:09:00,
2013-02-28 07:10:00,55.0,53.0,29.98,WSW,256,0.0,0.0,93,0.00,,---,0.00,VWS V14.01,2013-02-28 12:10:00,
2013-02-28 07:11:00,55.0,53.0,29.98,WSW,256,0.0,0.0,93,0.00,,---,0.00,VWS V14.01,2013-02-28 12:11:00,
2013-02-28 07:13:00,55.0,53.0,29.98,WSW,256,0.0,0.0,93,0.00,,---,0.00,VWS V14.01,2013-02-28 12:13:00,
2013-02-28 07:15:00,55.1,53.1,29.98,WSW,256,0.0,0.0,93,0.00,,---,0.00,VWS V14.01,2013-02-28 12:15:00,
2013-02-28 07:16:00,55.1,53.1,29.98,WSW,256,0.0,0.0,93,0.00,,---,0.00,VWS V14.01,2013-02-28 12:16:00,
2013-02-28 07:18:00,55.2,52.9,29.99,WSW,256,0.0,0.0,92,0.00,,---,0.00,VWS V14.01,2013-02-28 12:18:00,
2013-02-28 07:20:00,55.2,52.9,29.99,WSW,256,0.0,0.0,92,0.00,,---,0.00,VWS V14.01,2013-02-28 12:20:00,
2013-02-28 07:21:00,55.3,53.0,29.99,WSW,256,0.0,0.0,92,0.00,,---,0.00,VWS V14.01,2013-02-28 12:21:00,
2013-02-28 07:24:00,55.3,53.0,29.99,WSW,256,0.0,0.0,92,0.00,,---,0.00,VWS V14.01,2013-02-28 12:24:00,
2013-02-28 07:26:00,55.3,53.0,29.99,WSW,256,0.0,0.0,92,0.00,,---,0.00,VWS V14.01,2013-02-28 12:26:00,
2013-02-28 07:28:00,55.4,53.1,29.99,WSW,256,0.0,0.0,92,0.00,,---,0.00,VWS V14.01,2013-02-28 12:28:00,
2013-02-28 07:29:00,55.5,53.2,29.99,WSW,256,0.0,0.0,92,0.00,,---,0.00,VWS V14.01,2013-02-28 12:29:00,
2013-02-28 07:31:00,55.6,53.3,29.99,WSW,256,0.0,0.0,92,0.00,,---,0.00,VWS V14.01,2013-02-28 12:31:00,
2013-02-28 07:32:00,55.6,53.3,29.99,WSW,256,0.0,0.0,92,0.00,,---,0.00,VWS V14.01,2013-02-28 12:32:00,
2013-02-28 07:33:00,55.7,53.4,29.99,WSW,256,0.0,0.0,92,0.00,,---,0.00,VWS V14.01,2013-02-28 12:33:00,
2013-02-28 07:35:00,55.8,53.5,29.99,WSW,256,0.0,0.0,92,0.00,,---,0.00,VWS V14.01,2013-02-28 12:35:00,
2013-02-28 07:37:00,55.8,53.8,29.99,WSW,256,0.0,0.0,93,0.00,,---,0.00,VWS V14.01,2013-02-28 12:37:00,
2013-02-28 07:38:00,55.9,53.9,30.00,WSW,256,0.0,0.0,93,0.00,,---,0.00,VWS V14.01,2013-02-28 12:38:00,
2013-02-28 07:39:00,55.9,53.9,30.00,WSW,256,0.0,0.0,93,0.00,,---,0.00,VWS V14.01,2013-02-28 12:39:00,
2013-02-28 07:40:00,55.9,53.9,30.00,WSW,256,0.0,0.0,93,0.00,,---,0.00,VWS V14.01,2013-02-28 12:40:00,
2013-02-28 07:43:00,55.9,53.6,29.99,WSW,256,0.0,0.0,92,0.00,,---,0.00,VWS V14.01,2013-02-28 12:43:00,
2013-02-28 07:45:00,55.9,53.6,29.99,WSW,256,0.0,0.0,92,0.00,,---,0.00,VWS V14.01,2013-02-28 12:45:00,
2013-02-28 07:46:00,55.9,53.6,29.99,WSW,256,0.0,0.0,92,0.00,,---,0.00,VWS V14.01,2013-02-28 12:46:00,
2013-02-28 07:48:00,55.9,53.6,30.00,WSW,256,0.0,0.0,92,0.00,,---,0.00,VWS V14.01,2013-02-28 12:48:00,
2013-02-28 07:51:00,55.9,53.6,30.00,WSW,256,0.0,0.0,92,0.00,,---,0.00,VWS V14.01,2013-02-28 12:51:00,
2013-02-28 07:52:00,56.0,53.7,30.00,WSW,256,0.0,0.0,92,0.00,,---,0.00,VWS V14.01,2013-02-28 12:52:00,
2013-02-28 07:54:00,56.0,53.4,30.00,WSW,256,0.0,0.0,91,0.00,,---,0.00,VWS V14.01,2013-02-28 12:54:00,
2013-02-28 07:56:00,56.1,53.8,30.00,WSW,256,0.0,0.0,92,0.00,,---,0.00,VWS V14.01,2013-02-28 12:56:00,
2013-02-28 07:59:00,56.3,53.7,30.00,WSW,256,0.0,0.0,91,0.00,,---,0.00,VWS V14.01,2013-02-28 12:59:00,
2013-02-28 08:00:00,56.3,53.7,30.00,WSW,256,0.0,0.0,91,0.00,,---,0.00,VWS V14.01,2013-02-28 13:00:00,
2013-02-28 08:01:00,56.4,53.8,30.00,WSW,256,0.0,0.0,91,0.00,,---,0.00,VWS V14.01,2013-02-28 13:01:00,
2013-02-28 08:02:00,56.4,53.8,30.00,WSW,256,0.0,0.0,91,0.00,,---,0.00,VWS V14.01,2013-02-28 13:02:00,
2013-02-28 08:05:00,56.6,54.0,30.00,WSW,256,0.0,0.0,91,0.00,,---,0.00,VWS V14.01,2013-02-28 13:05:00,
2013-02-28 08:06:00,56.9,54.6,30.00,WSW,256,0.0,0.0,92,0.00,,---,0.00,VWS V14.01,2013-02-28 13:06:00,
2013-02-28 08:07:00,56.9,54.6,30.00,WSW,256,0.0,0.0,92,0.00,,---,0.00,VWS V14.01,2013-02-28 13:07:00,
2013-02-28 08:09:00,57.1,54.5,30.00,WSW,256,0.0,0.0,91,0.00,,---,0.00,VWS V14.01,2013-02-28 13:09:00,
2013-02-28 08:10:00,57.1,54.5,30.00,WSW,256,0.0,0.0,91,0.00,,---,0.00,VWS V14.01,2013-02-28 13:10:00,
2013-02-28 08:12:00,57.3,54.7,30.00,WSW,256,0.0,0.0,91,0.00,,---,0.00,VWS V14.01,2013-02-28 13:12:00,
2013-02-28 08:13:00,57.3,54.4,30.00,WSW,256,0.0,1.0,90,0.00,,---,0.00,VWS V14.01,2013-02-28 13:13:00,
2013-02-28 08:15:00,57.5,54.6,30.00,WSW,256,0.0,1.0,90,0.00,,---,0.00,VWS V14.01,2013-02-28 13:15:00,
2013-02-28 08:16:00,57.5,54.6,30.00,WSW,256,0.0,1.0,90,0.00,,---,0.00,VWS V14.01,2013-02-28 13:16:00,
2013-02-28 08:17:00,57.7,54.8,30.00,SW,214,1.0,4.0,90,0.00,,---,0.00,VWS V14.01,2013-02-28 13:17:00,
2013-02-28 08:18:00,57.8,54.6,30.00,SW,214,1.0,4.0,89,0.00,,---,0.00,VWS V14.01,2013-02-28 13:18:00,
2013-02-28 08:20:00,58.3,54.8,30.00,SW,214,0.0,4.0,88,0.00,,---,0.00,VWS V14.01,2013-02-28 13:20:00,
2013-02-28 08:21:00,58.5,55.0,30.01,SW,214,1.0,1.0,88,0.00,,---,0.00,VWS V14.01,2013-02-28 13:21:00,
2013-02-28 08:23:00,58.9,55.4,30.01,SW,214,0.0,1.0,88,0.00,,---,0.00,VWS V14.01,2013-02-28 13:23:00,
2013-02-28 08:24:00,59.0,55.1,30.01,SW,214,1.0,1.0,87,0.00,,---,0.00,VWS V14.01,2013-02-28 13:24:00,
2013-02-28 08:26:00,59.4,55.2,30.00,SW,214,1.0,2.0,86,0.00,,---,0.00,VWS V14.01,2013-02-28 13:26:00,
2013-02-28 08:28:00,60.0,55.2,30.01,WNW,290,1.0,3.0,84,0.00,,---,0.00,VWS V14.01,2013-02-28 13:28:00,
2013-02-28 08:29:00,60.2,55.0,30.01,WNW,290,1.0,3.0,83,0.00,,---,0.00,VWS V14.01,2013-02-28 13:29:00,
2013-02-28 08:31:00,60.7,54.8,30.01,West,280,2.0,2.0,81,0.00,,---,0.00,VWS V14.01,2013-02-28 13:31:00,
2013-02-28 08:32:00,60.9,55.0,30.01,West,280,1.0,2.0,81,0.00,,---,0.00,VWS V14.01,2013-02-28 13:32:00,
2013-02-28 08:34:00,61.5,55.3,30.01,West,280,1.0,2.0,80,0.00,,---,0.00,VWS V14.01,2013-02-28 13:34:00,
2013-02-28 08:35:00,61.7,55.5,30.01,West,280,1.0,2.0,80,0.00,,---,0.00,VWS V14.01,2013-02-28 13:35:00,
2013-02-28 08:36:00,62.0,55.4,30.01,West,280,1.0,1.0,79,0.00,,---,0.00,VWS V14.01,2013-02-28 13:36:00,
2013-02-28 08:37:00,62.1,55.5,30.01,West,280,0.0,1.0,79,0.00,,---,0.00,VWS V14.01,2013-02-28 13:37:00,
2013-02-28 08:40:00,62.6,55.7,30.01,NW,306,1.0,3.0,78,0.00,,---,0.00,VWS V14.01,2013-02-28 13:40:00,
2013-02-28 08:41:00,62.7,55.0,30.01,NW,306,2.0,3.0,76,0.00,,---,0.00,VWS V14.01,2013-02-28 13:41:00,
2013-02-28 08:43:00,62.9,55.2,30.01,NW,306,0.0,2.0,76,0.00,,---,0.00,VWS V14.01,2013-02-28 13:43:00,
2013-02-28 08:44:00,63.0,55.3,30.01,WSW,246,2.0,2.0,76,0.00,,---,0.00,VWS V14.01,2013-02-28 13:44:00,
2013-02-28 08:46:00,63.2,55.2,30.01,WNW,283,1.0,3.0,75,0.00,,---,0.00,VWS V14.01,2013-02-28 13:46:00,
2013-02-28 08:48:00,63.4,55.3,30.01,WNW,288,0.0,3.0,75,0.00,,---,0.00,VWS V14.01,2013-02-28 13:48:00,
2013-02-28 08:49:00,63.5,55.4,30.01,WNW,288,0.0,3.0,75,0.00,,---,0.00,VWS V14.01,2013-02-28 13:49:00,
2013-02-28 08:51:00,63.7,56.0,30.01,West,265,1.0,1.0,76,0.00,,---,0.00,VWS V14.01,2013-02-28 13:51:00,
2013-02-28 08:53:00,63.9,56.2,30.01,SSW,194,2.0,3.0,76,0.00,,---,0.00,VWS V14.01,2013-02-28 13:53:00,
2013-02-28 08:55:00,64.0,55.6,30.02,SSW,203,2.0,6.0,74,0.00,,---,0.00,VWS V14.01,2013-02-28 13:55:00,
2013-02-28 08:56:00,64.0,55.9,30.01,WNW,286,2.0,4.0,75,0.00,,---,0.00,VWS V14.01,2013-02-28 13:56:00,
2013-02-28 08:58:00,64.1,55.7,30.01,WNW,288,2.0,4.0,74,0.00,,---,0.00,VWS V14.01,2013-02-28 13:58:00,
2013-02-28 08:59:00,64.1,55.7,30.01,WNW,288,1.0,4.0,74,0.00,,---,0.00,VWS V14.01,2013-02-28 13:59:00,
2013-02-28 09:02:00,64.3,55.5,30.01,NW,321,2.0,3.0,73,0.00,,---,0.00,VWS V14.01,2013-02-28 14:02:00,
2013-02-28 09:03:00,64.4,55.6,30.01,NNW,327,2.0,3.0,73,0.00,,---,0.00,VWS V14.01,2013-02-28 14:03:00,
2013-02-28 09:04:00,64.5,55.3,30.02,NNW,327,1.0,3.0,72,0.00,,---,0.00,VWS V14.01,2013-02-28 14:04:00,
2013-02-28 09:07:00,64.7,55.9,30.02,NNW,327,1.0,1.0,73,0.00,,---,0.00,VWS V14.01,2013-02-28 14:07:00,
2013-02-28 09:09:00,64.8,55.6,30.01,WSW,258,2.0,4.0,72,0.00,,---,0.00,VWS V14.01,2013-02-28 14:09:00,
2013-02-28 09:10:00,64.9,55.7,30.01,WSW,258,0.0,4.0,72,0.00,,---,0.00,VWS V14.01,2013-02-28 14:10:00,
2013-02-28 09:12:00,65.0,55.8,30.01,SW,217,3.0,5.0,72,0.00,,---,0.00,VWS V14.01,2013-02-28 14:12:00,
2013-02-28 09:14:00,65.1,55.9,30.01,SW,232,2.0,6.0,72,0.00,,---,0.00,VWS V14.01,2013-02-28 14:14:00,
2013-02-28 09:15:00,65.2,56.0,30.01,SSW,200,4.0,6.0,72,0.00,,---,0.00,VWS V14.01,2013-02-28 14:15:00,
2013-02-28 09:16:00,65.2,55.6,30.01,SW,222,3.0,5.0,71,0.00,,---,0.00,VWS V14.01,2013-02-28 14:16:00,
2013-02-28 09:18:00,65.3,55.7,30.01,WSW,250,2.0,5.0,71,0.00,,---,0.00,VWS V14.01,2013-02-28 14:18:00,
2013-02-28 09:20:00,65.3,55.3,30.01,WNW,286,4.0,7.0,70,0.00,,---,0.00,VWS V14.01,2013-02-28 14:20:00,
2013-02-28 09:21:00,65.3,55.3,30.01,WNW,293,3.0,7.0,70,0.00,,---,0.00,VWS V14.01,2013-02-28 14:21:00,
2013-02-28 09:23:00,65.3,55.3,30.01,WSW,246,4.0,8.0,70,0.00,,---,0.00,VWS V14.01,2013-02-28 14:23:00,
2013-02-28 09:25:00,65.3,55.3,30.01,West,262,1.0,8.0,70,0.00,,---,0.00,VWS V14.01,2013-02-28 14:25:00,
2013-02-28 09:26:00,65.3,55.3,30.01,SW,230,1.0,8.0,70,0.00,,---,0.00,VWS V14.01,2013-02-28 14:26:00,
2013-02-28 09:29:00,65.4,55.4,30.01,West,261,6.0,7.0,70,0.00,,---,0.00,VWS V14.01,2013-02-28 14:29:00,
2013-02-28 09:30:00,65.4,55.8,30.01,WSW,237,1.0,7.0,71,0.00,,---,0.00,VWS V14.01,2013-02-28 14:30:00,
2013-02-28 09:31:00,65.4,55.8,30.01,SSW,192,1.0,7.0,71,0.00,,---,0.00,VWS V14.01,2013-02-28 14:31:00,
2013-02-28 09:35:00,65.6,55.6,30.01,South,170,1.0,10.0,70,0.00,,---,0.00,VWS V14.01,2013-02-28 14:35:00,
2013-02-28 09:36:00,65.6,55.6,30.01,WSW,250,4.0,10.0,70,0.00,,---,0.00,VWS V14.01,2013-02-28 14:36:00,
2013-02-28 09:40:00,65.6,55.6,30.01,SW,232,4.0,7.0,70,0.00,,---,0.00,VWS V14.01,2013-02-28 14:40:00,
2013-02-28 09:41:00,65.6,55.2,30.01,SW,218,2.0,7.0,69,0.00,,---,0.00,VWS V14.01,2013-02-28 14:41:00,
2013-02-28 09:45:00,65.6,55.6,30.01,SW,234,4.0,7.0,70,0.00,,---,0.00,VWS V14.01,2013-02-28 14:45:00,
2013-02-28 09:46:00,65.6,55.6,30.01,SW,236,1.0,3.0,70,0.00,,---,0.00,VWS V14.01,2013-02-28 14:46:00,
2013-02-28 09:47:00,65.7,56.0,30.01,SW,233,3.0,3.0,71,0.00,,---,0.00,VWS V14.01,2013-02-28 14:47:00,
2013-02-28 09:51:00,66.1,56.0,30.02,West,270,3.0,4.0,70,0.00,,---,0.00,VWS V14.01,2013-02-28 14:51:00,
2013-02-28 09:52:00,66.2,55.7,30.02,WSW,243,2.0,6.0,69,0.00,,---,0.00,VWS V14.01,2013-02-28 14:52:00,
2013-02-28 09:56:00,66.3,55.8,30.01,SW,231,5.0,5.0,69,0.00,,---,0.00,VWS V14.01,2013-02-28 14:56:00,
2013-02-28 09:57:00,66.3,55.4,30.01,West,259,1.0,6.0,68,0.00,,---,0.00,VWS V14.01,2013-02-28 14:57:00,
2013-02-28 09:58:00,66.3,55.8,30.02,WSW,243,2.0,6.0,69,0.00,,---,0.00,VWS V14.01,2013-02-28 14:58:00,
2013-02-28 10:01:00,66.4,55.1,30.02,West,279,1.0,3.0,67,0.00,,---,0.00,VWS V14.01,2013-02-28 15:01:00,
2013-02-28 10:02:00,66.4,55.5,30.01,West,274,1.0,3.0,68,0.00,,---,0.00,VWS V14.01,2013-02-28 15:02:00,
2013-02-28 10:03:00,66.5,55.6,30.02,West,259,2.0,3.0,68,0.00,,---,0.00,VWS V14.01,2013-02-28 15:03:00,
2013-02-28 10:04:00,66.5,55.6,30.02,West,279,0.0,3.0,68,0.00,,---,0.00,VWS V14.01,2013-02-28 15:04:00,
2013-02-28 10:07:00,66.7,55.4,30.02,WSW,254,2.0,4.0,67,0.00,,---,0.00,VWS V14.01,2013-02-28 15:07:00,
2013-02-28 10:08:00,66.7,55.8,30.02,WSW,253,2.0,5.0,68,0.00,,---,0.00,VWS V14.01,2013-02-28 15:08:00,
2013-02-28 10:09:00,66.7,55.8,30.02,WSW,254,0.0,5.0,68,0.00,,---,0.00,VWS V14.01,2013-02-28 15:09:00,
2013-02-28 10:13:00,67.0,56.1,30.01,West,274,5.0,8.0,68,0.00,,---,0.00,VWS V14.01,2013-02-28 15:13:00,
2013-02-28 10:14:00,67.0,56.1,30.01,SW,234,2.0,8.0,68,0.00,,---,0.00,VWS V14.01,2013-02-28 15:14:00,
2013-02-28 10:15:00,67.0,56.1,30.01,SW,235,1.0,8.0,68,0.00,,---,0.00,VWS V14.01,2013-02-28 15:15:00,
2013-02-28 10:19:00,67.1,56.6,30.01,West,276,2.0,5.0,69,0.00,,---,0.00,VWS V14.01,2013-02-28 15:19:00,
2013-02-28 10:20:00,67.3,56.4,30.01,West,261,1.0,5.0,68,0.00,,---,0.00,VWS V14.01,2013-02-28 15:20:00,
2013-02-28 10:24:00,67.5,55.8,30.01,WSW,252,3.0,7.0,66,0.00,,---,0.00,VWS V14.01,2013-02-28 15:24:00,
2013-02-28 10:25:00,67.5,55.8,30.01,SW,227,5.0,7.0,66,0.00,,---,0.00,VWS V14.01,2013-02-28 15:25:00,
2013-02-28 10:26:00,67.5,55.8,30.01,WSW,249,2.0,3.0,66,0.00,,---,0.00,VWS V14.01,2013-02-28 15:26:00,
2013-02-28 10:31:00,67.8,55.6,30.01,WSW,240,1.0,6.0,65,0.00,,---,0.00,VWS V14.01,2013-02-28 15:31:00,
2013-02-28 10:32:00,67.9,55.7,30.01,SSW,205,6.0,6.0,65,0.00,,---,0.00,VWS V14.01,2013-02-28 15:32:00,
2013-02-28 10:36:00,67.7,56.0,30.01,WSW,251,1.0,11.0,66,0.00,,---,0.00,VWS V14.01,2013-02-28 15:36:00,
2013-02-28 10:37:00,67.7,56.0,30.01,WSW,243,1.0,7.0,66,0.00,,---,0.00,VWS V14.01,2013-02-28 15:37:00,
2013-02-28 10:38:00,67.7,56.0,30.01,SW,234,8.0,8.0,66,0.00,,---,0.00,VWS V14.01,2013-02-28 15:38:00,
2013-02-28 10:41:00,67.6,55.4,30.01,WNW,282,2.0,8.0,65,0.00,,---,0.00,VWS V14.01,2013-02-28 15:41:00,
2013-02-28 10:42:00,67.6,55.4,30.01,WNW,294,1.0,6.0,65,0.00,,---,0.00,VWS V14.01,2013-02-28 15:42:00,
2013-02-28 10:43:00,67.7,55.5,30.01,WNW,282,3.0,6.0,65,0.00,,---,0.00,VWS V14.01,2013-02-28 15:43:00,
2013-02-28 10:44:00,67.7,55.5,30.01,WSW,250,6.0,10.0,65,0.00,,---,0.00,VWS V14.01,2013-02-28 15:44:00,
2013-02-28 10:47:00,67.6,55.0,30.01,SW,230,5.0,7.0,64,0.00,,---,0.00,VWS V14.01,2013-02-28 15:47:00,
2013-02-28 10:48:00,67.5,54.9,30.01,WSW,250,1.0,7.0,64,0.00,,---,0.00,VWS V14.01,2013-02-28 15:48:00,
2013-02-28 10:50:00,67.5,54.5,30.01,SW,220,2.0,7.0,63,0.00,,---,0.00,VWS V14.01,2013-02-28 15:50:00,
2013-02-28 10:53:00,67.6,55.4,30.00,SSW,205,3.0,7.0,65,0.00,,---,0.00,VWS V14.01,2013-02-28 15:53:00,
2013-02-28 10:54:00,67.7,54.7,30.00,West,278,4.0,7.0,63,0.00,,---,0.00,VWS V14.01,2013-02-28 15:54:00,
2013-02-28 10:55:00,67.7,54.7,30.00,WSW,248,1.0,7.0,63,0.00,,---,0.00,VWS V14.01,2013-02-28 15:55:00,
2013-02-28 10:58:00,67.9,54.8,30.00,SW,236,3.0,4.0,63,0.00,,---,0.00,VWS V14.01,2013-02-28 15:58:00,
2013-02-28 10:59:00,67.9,54.8,30.00,SW,233,1.0,6.0,63,0.00,,---,0.00,VWS V14.01,2013-02-28 15:59:00,
2013-02-28 11:01:00,67.8,55.2,30.00,West,270,3.0,6.0,64,0.00,,---,0.00,VWS V14.01,2013-02-28 16:01:00,
2013-02-28 11:03:00,67.9,55.3,30.00,WSW,244,2.0,6.0,64,0.00,,---,0.00,VWS V14.01,2013-02-28 16:03:00,
2013-02-28 11:04:00,67.9,55.3,30.00,West,262,2.0,6.0,64,0.00,,---,0.00,VWS V14.01,2013-02-28 16:04:00,
2013-02-28 11:05:00,67.9,55.3,30.00,West,269,2.0,6.0,64,0.00,,---,0.00,VWS V14.01,2013-02-28 16:05:00,
2013-02-28 11:06:00,67.9,54.4,30.00,West,271,1.0,1.0,62,0.00,,---,0.00,VWS V14.01,2013-02-28 16:06:00,
2013-02-28 11:09:00,67.8,54.3,30.00,SSW,210,0.0,5.0,62,0.00,,---,0.00,VWS V14.01,2013-02-28 16:09:00,
2013-02-28 11:10:00,67.8,54.8,30.00,SSW,210,2.0,5.0,63,0.00,,---,0.00,VWS V14.01,2013-02-28 16:10:00,
2013-02-28 11:11:00,67.9,55.7,30.00,SW,236,3.0,5.0,65,0.00,,---,0.00,VWS V14.01,2013-02-28 16:11:00,
2013-02-28 11:14:00,67.9,54.4,30.00,SW,217,3.0,8.0,62,0.00,,---,0.00,VWS V14.01,2013-02-28 16:14:00,
2013-02-28 11:15:00,67.9,54.8,30.00,SW,217,2.0,8.0,63,0.00,,---,0.00,VWS V14.01,2013-02-28 16:15:00,
2013-02-28 11:16:00,67.8,54.8,30.00,SW,217,1.0,8.0,63,0.00,,---,0.00,VWS V14.01,2013-02-28 16:16:00,
2013-02-28 11:20:00,68.2,55.6,30.00,West,271,2.0,6.0,64,0.00,,---,0.00,VWS V14.01,2013-02-28 16:20:00,
2013-02-28 11:21:00,68.3,55.2,30.00,SW,234,1.0,6.0,63,0.00,,---,0.00,VWS V14.01,2013-02-28 16:21:00,
2013-02-28 11:22:00,68.4,55.3,30.00,SW,236,2.0,7.0,63,0.00,,---,0.00,VWS V14.01,2013-02-28 16:22:00,
2013-02-28 11:26:00,68.5,55.4,30.00,WSW,257,4.0,10.0,63,0.00,,---,0.00,VWS V14.01,2013-02-28 16:26:00,
2013-02-28 11:27:00,68.4,55.8,30.00,SSW,208,6.0,6.0,64,0.00,,---,0.00,VWS V14.01,2013-02-28 16:27:00,
2013-02-28 11:28:00,68.4,55.8,30.00,WSW,240,3.0,7.0,64,0.00,,---,0.00,VWS V14.01,2013-02-28 16:28:00,
2013-02-28 11:31:00,68.4,55.3,30.00,SW,221,2.0,7.0,63,0.00,,---,0.00,VWS V14.01,2013-02-28 16:31:00,
2013-02-28 11:33:00,68.4,55.3,30.00,SW,216,3.0,4.0,63,0.00,,---,0.00,VWS V14.01,2013-02-28 16:33:00,
2013-02-28 11:34:00,68.5,55.4,30.00,SW,216,3.0,4.0,63,0.00,,---,0.00,VWS V14.01,2013-02-28 16:34:00,
2013-02-28 11:36:00,68.5,55.0,30.00,West,264,0.0,4.0,62,0.00,,---,0.00,VWS V14.01,2013-02-28 16:36:00,
2013-02-28 11:39:00,68.7,56.0,30.00,SW,234,1.0,3.0,64,0.00,,---,0.00,VWS V14.01,2013-02-28 16:39:00,
2013-02-28 11:41:00,68.9,55.4,30.00,NW,316,1.0,2.0,62,0.00,,---,0.00,VWS V14.01,2013-02-28 16:41:00,
2013-02-28 11:42:00,68.9,55.4,30.00,NW,316,1.0,2.0,62,0.00,,---,0.00,VWS V14.01,2013-02-28 16:42:00,
2013-02-28 11:44:00,68.8,55.7,30.00,WNW,283,3.0,4.0,63,0.00,,---,0.00,VWS V14.01,2013-02-28 16:44:00,
2013-02-28 11:46:00,68.8,55.7,30.00,WSW,245,2.0,5.0,63,0.00,,---,0.00,VWS V14.01,2013-02-28 16:46:00,
2013-02-28 11:47:00,68.9,55.8,30.00,WSW,246,3.0,4.0,63,0.00,,---,0.00,VWS V14.01,2013-02-28 16:47:00,
2013-02-28 11:51:00,68.8,56.1,30.00,West,280,1.0,1.0,64,0.00,,---,0.00,VWS V14.01,2013-02-28 16:51:00,
2013-02-28 11:52:00,68.8,56.1,30.00,WNW,296,2.0,4.0,64,0.00,,---,0.00,VWS V14.01,2013-02-28 16:52:00,
2013-02-28 11:53:00,68.9,56.2,30.00,West,277,2.0,4.0,64,0.00,,---,0.00,VWS V14.01,2013-02-28 16:53:00,
2013-02-28 11:56:00,68.6,55.5,30.00,SW,236,1.0,3.0,63,0.00,,---,0.00,VWS V14.01,2013-02-28 16:56:00,
2013-02-28 11:57:00,68.5,55.9,30.00,WSW,238,3.0,3.0,64,0.00,,---,0.00,VWS V14.01,2013-02-28 16:57:00,
2013-02-28 11:58:00,68.4,55.8,30.00,SW,226,2.0,4.0,64,0.00,,---,0.00,VWS V14.01,2013-02-28 16:58:00,
2013-02-28 12:02:00,67.9,56.1,30.00,SW,228,2.0,3.0,66,0.00,,---,0.00,VWS V14.01,2013-02-28 17:02:00,
2013-02-28 12:03:00,67.9,56.1,30.00,WNW,303,2.0,5.0,66,0.00,,---,0.00,VWS V14.01,2013-02-28 17:03:00,
2013-02-28 12:07:00,67.7,54.7,30.00,SSW,207,1.0,5.0,63,0.00,,---,0.00,VWS V14.01,2013-02-28 17:07:00,
2013-02-28 12:08:00,67.6,55.0,30.00,SSW,207,1.0,5.0,64,0.00,,---,0.00,VWS V14.01,2013-02-28 17:08:00,
2013-02-28 12:09:00,67.5,55.3,30.00,South,185,2.0,5.0,65,0.00,,---,0.00,VWS V14.01,2013-02-28 17:09:00,
2013-02-28 12:13:00,67.3,54.7,30.00,SW,233,4.0,8.0,64,0.00,,---,0.00,VWS V14.01,2013-02-28 17:13:00,
2013-02-28 12:14:00,67.3,54.7,30.00,SW,232,3.0,8.0,64,0.00,,---,0.00,VWS V14.01,2013-02-28 17:14:00,
2013-02-28 12:15:00,67.4,55.2,30.00,SW,224,2.0,8.0,65,0.00,,---,0.00,VWS V14.01,2013-02-28 17:15:00,
2013-02-28 12:19:00,68.3,55.7,29.99,SW,225,1.0,6.0,64,0.00,,---,0.00,VWS V14.01,2013-02-28 17:19:00,
2013-02-28 12:20:00,68.4,55.3,29.99,WSW,240,3.0,6.0,63,0.00,,---,0.00,VWS V14.01,2013-02-28 17:20:00,
2013-02-28 12:21:00,68.6,56.0,29.99,SSE,165,2.0,2.0,64,0.00,,---,0.00,VWS V14.01,2013-02-28 17:21:00,
2013-02-28 12:24:00,68.9,55.4,29.99,West,269,4.0,10.0,62,0.00,,---,0.00,VWS V14.01,2013-02-28 17:24:00,
2013-02-28 12:25:00,68.9,55.8,29.99,West,278,1.0,10.0,63,0.00,,---,0.00,VWS V14.01,2013-02-28 17:25:00,
2013-02-28 12:26:00,69.0,55.9,29.99,SSW,207,4.0,10.0,63,0.00,,---,0.00,VWS V14.01,2013-02-28 17:26:00,
2013-02-28 12:30:00,69.2,55.2,29.99,SW,236,1.0,5.0,61,0.00,,---,0.00,VWS V14.01,2013-02-28 17:30:00,
2013-02-28 12:31:00,69.2,55.2,29.99,SW,235,5.0,5.0,61,0.00,,---,0.00,VWS V14.01,2013-02-28 17:31:00,
2013-02-28 12:32:00,69.3,55.7,29.99,West,269,2.0,5.0,62,0.00,,---,0.00,VWS V14.01,2013-02-28 17:32:00,
2013-02-28 12:35:00,69.4,55.8,29.99,West,276,1.0,5.0,62,0.00,,---,0.00,VWS V14.01,2013-02-28 17:35:00,
2013-02-28 12:36:00,69.5,55.5,29.99,West,276,1.0,5.0,61,0.00,,---,0.00,VWS V14.01,2013-02-28 17:36:00,
2013-02-28 12:38:00,69.5,55.5,29.99,SE,127,1.0,3.0,61,0.00,,---,0.00,VWS V14.01,2013-02-28 17:38:00,
2013-02-28 12:40:00,69.5,56.4,29.98,WSW,245,1.0,5.0,63,0.00,,---,0.00,VWS V14.01,2013-02-28 17:40:00,
2013-02-28 12:41:00,69.5,56.8,29.99,WSW,245,0.0,1.0,64,0.00,,---,0.00,VWS V14.01,2013-02-28 17:41:00,
2013-02-28 12:42:00,69.6,56.9,29.98,WSW,245,1.0,2.0,64,0.00,,---,0.00,VWS V14.01,2013-02-28 17:42:00,
2013-02-28 12:43:00,69.7,56.1,29.98,SW,227,4.0,4.0,62,0.00,,---,0.00,VWS V14.01,2013-02-28 17:43:00,
2013-02-28 12:47:00,69.8,55.3,29.98,WSW,244,2.0,4.0,60,0.00,,---,0.00,VWS V14.01,2013-02-28 17:47:00,
2013-02-28 12:48:00,69.8,55.3,29.98,SW,224,4.0,4.0,60,0.00,,---,0.00,VWS V14.01,2013-02-28 17:48:00,
2013-02-28 12:49:00,69.7,55.7,29.98,West,269,3.0,10.0,61,0.00,,---,0.00,VWS V14.01,2013-02-28 17:49:00,
2013-02-28 12:53:00,69.8,55.3,29.98,WSW,246,5.0,6.0,60,0.00,,---,0.00,VWS V14.01,2013-02-28 17:53:00,
2013-02-28 12:54:00,69.8,55.8,29.98,West,262,2.0,6.0,61,0.00,,---,0.00,VWS V14.01,2013-02-28 17:54:00,
2013-02-28 12:55:00,69.7,55.7,29.98,WSW,247,2.0,7.0,61,0.00,,---,0.00,VWS V14.01,2013-02-28 17:55:00,
2013-02-28 12:58:00,69.3,56.2,29.98,SSW,192,4.0,7.0,63,0.00,,---,0.00,VWS V14.01,2013-02-28 17:58:00,
2013-02-28 13:00:00,69.2,55.6,29.98,South,190,3.0,7.0,62,0.00,,---,0.00,VWS V14.01,2013-02-28 18:00:00,
2013-02-28 13:01:00,69.2,55.6,29.97,WSW,241,6.0,7.0,62,0.00,,---,0.00,VWS V14.01,2013-02-28 18:01:00,
2013-02-28 13:05:00,69.0,55.9,29.97,WSW,252,3.0,6.0,63,0.00,,---,0.00,VWS V14.01,2013-02-28 18:05:00,
2013-02-28 13:06:00,68.9,55.8,29.97,SSW,207,1.0,6.0,63,0.00,,---,0.00,VWS V14.01,2013-02-28 18:06:00,
2013-02-28 13:10:00,69.2,56.1,29.97,WSW,254,5.0,5.0,63,0.00,,---,0.00,VWS V14.01,2013-02-28 18:10:00,
2013-02-28 13:11:00,69.1,56.0,29.97,SW,236,3.0,6.0,63,0.00,,---,0.00,VWS V14.01,2013-02-28 18:11:00,
2013-02-28 13:12:00,69.2,56.1,29.97,WSW,253,3.0,10.0,63,0.00,,---,0.00,VWS V14.01,2013-02-28 18:12:00,
2013-02-28 13:16:00,69.3,56.2,29.97,SSW,211,2.0,10.0,63,0.00,,---,0.00,VWS V14.01,2013-02-28 18:16:00,
2013-02-28 13:17:00,69.4,56.7,29.97,SSW,211,2.0,2.0,64,0.00,,---,0.00,VWS V14.01,2013-02-28 18:17:00,
2013-02-28 13:21:00,69.7,56.1,29.97,WNW,302,2.0,8.0,62,0.00,,---,0.00,VWS V14.01,2013-02-28 18:21:00,
2013-02-28 13:22:00,69.7,55.7,29.97,WSW,244,4.0,4.0,61,0.00,,---,0.00,VWS V14.01,2013-02-28 18:22:00,
2013-02-28 13:23:00,69.7,55.7,29.97,WSW,238,2.0,4.0,61,0.00,,---,0.00,VWS V14.01,2013-02-28 18:23:00,
2013-02-28 13:26:00,69.4,55.8,29.97,SSW,203,4.0,5.0,62,0.00,,---,0.00,VWS V14.01,2013-02-28 18:26:00,
2013-02-28 13:28:00,69.2,56.1,29.97,West,275,2.0,6.0,63,0.00,,---,0.00,VWS V14.01,2013-02-28 18:28:00,
2013-02-28 13:29:00,69.2,56.1,29.96,SSW,207,1.0,6.0,63,0.00,,---,0.00,VWS V14.01,2013-02-28 18:29:00,
2013-02-28 13:31:00,69.2,56.1,29.96,SW,232,3.0,5.0,63,0.00,,---,0.00,VWS V14.01,2013-02-28 18:31:00,
2013-02-28 13:34:00,69.1,56.0,29.96,SW,221,5.0,8.0,63,0.00,,---,0.00,VWS V14.01,2013-02-28 18:34:00,
2013-02-28 13:35:00,69.1,55.5,29.96,West,264,3.0,8.0,62,0.00,,---,0.00,VWS V14.01,2013-02-28 18:35:00,
2013-02-28 13:37:00,69.3,56.2,29.96,WSW,248,1.0,5.0,63,0.00,,---,0.00,VWS V14.01,2013-02-28 18:37:00,
2013-02-28 13:40:00,69.2,55.6,29.96,West,264,1.0,9.0,62,0.00,,---,0.00,VWS V14.01,2013-02-28 18:40:00,
2013-02-28 13:41:00,69.2,55.6,29.96,West,279,1.0,9.0,62,0.00,,---,0.00,VWS V14.01,2013-02-28 18:41:00,
2013-02-28 13:44:00,69.1,55.5,29.96,West,275,3.0,6.0,62,0.00,,---,0.00,VWS V14.01,2013-02-28 18:44:00,
2013-02-28 13:45:00,69.3,55.7,29.96,SW,221,7.0,7.0,62,0.00,,---,0.00,VWS V14.01,2013-02-28 18:45:00,
2013-02-28 13:46:00,69.3,56.2,29.96,SW,235,8.0,8.0,63,0.00,,---,0.00,VWS V14.01,2013-02-28 18:46:00,
2013-02-28 13:50:00,69.5,55.5,29.96,WSW,241,0.0,6.0,61,0.00,,---,0.00,VWS V14.01,2013-02-28 18:50:00,
2013-02-28 13:51:00,69.6,55.1,29.96,SW,231,6.0,6.0,60,0.00,,---,0.00,VWS V14.01,2013-02-28 18:51:00,
2013-02-28 13:52:00,69.6,55.1,29.96,West,279,3.0,6.0,60,0.00,,---,0.00,VWS V14.01,2013-02-28 18:52:00,
2013-02-28 13:54:00,69.6,55.6,29.96,West,279,3.0,8.0,61,0.00,,---,0.00,VWS V14.01,2013-02-28 18:54:00,
2013-02-28 13:55:00,69.7,56.1,29.95,West,277,3.0,8.0,62,0.00,,---,0.00,VWS V14.01,2013-02-28 18:55:00,
2013-02-28 13:57:00,69.9,55.8,29.95,WSW,247,3.0,6.0,61,0.00,,---,0.00,VWS V14.01,2013-02-28 18:57:00,
2013-02-28 13:58:00,70.1,55.6,29.95,South,185,2.0,6.0,60,0.00,,---,0.00,VWS V14.01,2013-02-28 18:58:00,
2013-02-28 13:59:00,70.1,55.6,29.95,West,263,6.0,8.0,60,0.00,,---,0.00,VWS V14.01,2013-02-28 18:59:00,
2013-02-28 14:00:00,70.1,55.6,29.96,WNW,297,3.0,8.0,60,0.00,,---,0.00,VWS V14.01,2013-02-28 19:00:00,
2013-02-28 14:02:00,70.0,55.0,29.95,West,261,3.0,5.0,59,0.00,,---,0.00,VWS V14.01,2013-02-28 19:02:00,
2013-02-28 14:04:00,69.8,55.3,29.95,WSW,257,2.0,5.0,60,0.00,,---,0.00,VWS V14.01,2013-02-28 19:04:00,
2013-02-28 14:05:00,69.8,55.3,29.95,West,273,2.0,5.0,60,0.00,,---,0.00,VWS V14.01,2013-02-28 19:05:00,
2013-02-28 14:07:00,69.7,55.2,29.95,West,279,3.0,3.0,60,0.00,,---,0.00,VWS V14.01,2013-02-28 19:07:00,
2013-02-28 14:09:00,69.8,56.2,29.95,WNW,298,2.0,4.0,62,0.00,,---,0.00,VWS V14.01,2013-02-28 19:09:00,
2013-02-28 14:10:00,69.9,56.3,29.95,WNW,298,1.0,4.0,62,0.00,,---,0.00,VWS V14.01,2013-02-28 19:10:00,
2013-02-28 14:11:00,69.9,55.8,29.95,SSW,207,2.0,2.0,61,0.00,,---,0.00,VWS V14.01,2013-02-28 19:11:00,
2013-02-28 14:13:00,70.2,56.1,29.95,WSW,254,0.0,6.0,61,0.00,,---,0.00,VWS V14.01,2013-02-28 19:13:00,
2013-02-28 14:14:00,70.2,56.1,29.95,West,277,1.0,8.0,61,0.00,,---,0.00,VWS V14.01,2013-02-28 19:14:00,
2013-02-28 14:15:00,70.3,56.2,29.95,West,269,1.0,8.0,61,0.00,,---,0.00,VWS V14.01,2013-02-28 19:15:00,
2013-02-28 14:17:00,70.3,55.8,29.95,SW,227,2.0,4.0,60,0.00,,---,0.00,VWS V14.01,2013-02-28 19:17:00,
2013-02-28 14:19:00,70.2,56.1,29.95,SW,218,5.0,7.0,61,0.00,,---,0.00,VWS V14.01,2013-02-28 19:19:00,
2013-02-28 14:20:00,70.2,55.7,29.95,West,275,2.0,7.0,60,0.00,,---,0.00,VWS V14.01,2013-02-28 19:20:00,
2013-02-28 14:21:00,70.2,55.7,29.95,WNW,299,3.0,7.0,60,0.00,,---,0.00,VWS V14.01,2013-02-28 19:21:00,
2013-02-28 14:23:00,70.2,56.1,29.95,WSW,243,1.0,6.0,61,0.00,,---,0.00,VWS V14.01,2013-02-28 19:23:00,
2013-02-28 14:24:00,70.3,55.8,29.95,WSW,237,4.0,6.0,60,0.00,,---,0.00,VWS V14.01,2013-02-28 19:24:00,
2013-02-28 14:26:00,70.2,55.7,29.95,SW,229,4.0,8.0,60,0.00,,---,0.00,VWS V14.01,2013-02-28 19:26:00,
2013-02-28 14:28:00,70.0,56.0,29.95,SW,236,3.0,9.0,61,0.00,,---,0.00,VWS V14.01,2013-02-28 19:28:00,
2013-02-28 14:30:00,70.0,55.5,29.95,WSW,250,1.0,9.0,60,0.00,,---,0.00,VWS V14.01,2013-02-28 19:30:00,
2013-02-28 14:32:00,69.9,55.4,29.95,SSW,198,5.0,7.0,60,0.00,,---,0.00,VWS V14.01,2013-02-28 19:32:00,
2013-02-28 14:33:00,70.0,56.0,29.95,SSW,200,3.0,7.0,61,0.00,,---,0.00,VWS V14.01,2013-02-28 19:33:00,
2013-02-28 14:34:00,70.1,56.0,29.95,South,180,4.0,7.0,61,0.00,,---,0.00,VWS V14.01,2013-02-28 19:34:00,
2013-02-28 14:35:00,70.1,55.6,29.95,SSW,194,3.0,8.0,60,0.00,,---,0.00,VWS V14.01,2013-02-28 19:35:00,
2013-02-28 14:37:00,70.2,56.1,29.95,SW,221,4.0,5.0,61,0.00,,---,0.00,VWS V14.01,2013-02-28 19:37:00,
2013-02-28 14:38:00,70.2,56.1,29.95,SSW,213,5.0,5.0,61,0.00,,---,0.00,VWS V14.01,2013-02-28 19:38:00,
2013-02-28 14:39:00,70.2,55.7,29.95,SW,216,2.0,7.0,60,0.00,,---,0.00,VWS V14.01,2013-02-28 19:39:00,
2013-02-28 14:40:00,70.2,56.1,29.95,SSW,192,3.0,7.0,61,0.00,,---,0.00,VWS V14.01,2013-02-28 19:40:00,
2013-02-28 14:43:00,70.1,56.0,29.95,SW,230,4.0,8.0,61,0.00,,---,0.00,VWS V14.01,2013-02-28 19:43:00,
2013-02-28 14:44:00,70.2,56.1,29.95,SW,223,2.0,8.0,61,0.00,,---,0.00,VWS V14.01,2013-02-28 19:44:00,
2013-02-28 14:45:00,70.3,55.8,29.95,SSW,208,3.0,8.0,60,0.00,,---,0.00,VWS V14.01,2013-02-28 19:45:00,
2013-02-28 14:48:00,70.4,55.4,29.94,SSW,205,1.0,7.0,59,0.00,,---,0.00,VWS V14.01,2013-02-28 19:48:00,
2013-02-28 14:49:00,70.4,55.9,29.94,WSW,240,3.0,7.0,60,0.00,,---,0.00,VWS V14.01,2013-02-28 19:49:00,
2013-02-28 14:50:00,70.4,55.4,29.94,South,184,1.0,7.0,59,0.00,,---,0.00,VWS V14.01,2013-02-28 19:50:00,
2013-02-28 14:53:00,70.6,55.1,29.94,West,281,5.0,5.0,58,0.00,,---,0.00,VWS V14.01,2013-02-28 19:53:00,
2013-02-28 14:55:00,70.8,55.8,29.94,WSW,242,0.0,5.0,59,0.00,,---,0.00,VWS V14.01,2013-02-28 19:55:00,
2013-02-28 14:56:00,70.9,56.3,29.94,WNW,284,3.0,6.0,60,0.00,,---,0.00,VWS V14.01,2013-02-28 19:56:00,
2013-02-28 14:58:00,71.0,56.0,29.94,SSW,206,4.0,9.0,59,0.00,,---,0.00,VWS V14.01,2013-02-28 19:58:00,
2013-02-28 15:00:00,70.8,55.8,29.94,South,182,3.0,9.0,59,0.00,,---,0.00,VWS V14.01,2013-02-28 20:00:00,
2013-02-28 15:02:00,70.8,56.2,29.94,South,182,1.0,2.0,60,0.00,,---,0.00,VWS V14.01,2013-02-28 20:02:00,
2013-02-28 15:04:00,71.0,56.4,29.94,SSW,197,5.0,6.0,60,0.00,,---,0.00,VWS V14.01,2013-02-28 20:04:00,
2013-02-28 15:05:00,71.1,56.5,29.94,WSW,248,2.0,6.0,60,0.00,,---,0.00,VWS V14.01,2013-02-28 20:05:00,
2013-02-28 15:06:00,71.1,56.5,29.94,West,259,1.0,6.0,60,0.00,,---,0.00,VWS V14.01,2013-02-28 20:06:00,
2013-02-28 15:08:00,71.2,56.2,29.94,SSW,204,1.0,5.0,59,0.00,,---,0.00,VWS V14.01,2013-02-28 20:08:00,
2013-02-28 15:10:00,71.3,56.7,29.94,SW,226,5.0,5.0,60,0.00,,---,0.00,VWS V14.01,2013-02-28 20:10:00,
2013-02-28 15:11:00,71.4,56.3,29.94,WSW,247,3.0,4.0,59,0.00,,---,0.00,VWS V14.01,2013-02-28 20:11:00,
2013-02-28 15:12:00,71.4,56.3,29.94,WSW,252,4.0,5.0,59,0.00,,---,0.00,VWS V14.01,2013-02-28 20:12:00,
2013-02-28 15:15:00,71.2,55.7,29.94,West,262,1.0,7.0,58,0.00,,---,0.00,VWS V14.01,2013-02-28 20:15:00,
2013-02-28 15:16:00,71.1,56.1,29.94,West,263,2.0,3.0,59,0.00,,---,0.00,VWS V14.01,2013-02-28 20:16:00,
2013-02-28 15:17:00,71.2,56.2,29.94,South,175,2.0,4.0,59,0.00,,---,0.00,VWS V14.01,2013-02-28 20:17:00,
2013-02-28 15:20:00,71.2,56.6,29.94,SSW,208,6.0,8.0,60,0.00,,---,0.00,VWS V14.01,2013-02-28 20:20:00,
2013-02-28 15:21:00,71.2,56.6,29.94,WSW,252,4.0,8.0,60,0.00,,---,0.00,VWS V14.01,2013-02-28 20:21:00,
2013-02-28 15:23:00,71.0,55.5,29.94,West,267,4.0,8.0,58,0.00,,---,0.00,VWS V14.01,2013-02-28 20:23:00,
2013-02-28 15:24:00,70.9,55.9,29.94,SW,235,3.0,8.0,59,0.00,,---,0.00,VWS V14.01,2013-02-28 20:24:00,
2013-02-28 15:26:00,71.0,56.0,29.94,West,269,1.0,1.0,59,0.00,,---,0.00,VWS V14.01,2013-02-28 20:26:00,
2013-02-28 15:28:00,71.2,56.6,29.94,WSW,237,1.0,4.0,60,0.00,,---,0.00,VWS V14.01,2013-02-28 20:28:00,
2013-02-28 15:30:00,71.3,56.2,29.94,SSW,213,2.0,12.0,59,0.00,,---,0.00,VWS V14.01,2013-02-28 20:30:00,
2013-02-28 15:31:00,71.4,56.8,29.94,SW,230,2.0,4.0,60,0.00,,---,0.00,VWS V14.01,2013-02-28 20:31:00,
2013-02-28 15:34:00,71.4,56.3,29.94,SW,224,6.0,6.0,59,0.00,,---,0.00,VWS V14.01,2013-02-28 20:34:00,
2013-02-28 15:35:00,71.2,56.2,29.94,South,171,4.0,8.0,59,0.00,,---,0.00,VWS V14.01,2013-02-28 20:35:00,
2013-02-28 15:37:00,71.0,56.0,29.94,WSW,240,6.0,7.0,59,0.00,,---,0.00,VWS V14.01,2013-02-28 20:37:00,
2013-02-28 15:40:00,70.6,56.5,29.94,WSW,242,4.0,7.0,61,0.00,,---,0.00,VWS V14.01,2013-02-28 20:40:00,
2013-02-28 15:42:00,70.7,56.6,29.93,South,186,4.0,5.0,61,0.00,,---,0.00,VWS V14.01,2013-02-28 20:42:00,
2013-02-28 15:43:00,70.7,56.6,29.93,SW,219,3.0,6.0,61,0.00,,---,0.00,VWS V14.01,2013-02-28 20:43:00,
2013-02-28 15:45:00,70.6,56.1,29.94,WSW,256,3.0,6.0,60,0.00,,---,0.00,VWS V14.01,2013-02-28 20:45:00,
2013-02-28 15:47:00,70.6,56.1,29.94,West,277,3.0,7.0,60,0.00,,---,0.00,VWS V14.01,2013-02-28 20:47:00,
2013-02-28 15:48:00,70.5,56.0,29.94,SW,215,1.0,7.0,60,0.00,,---,0.00,VWS V14.01,2013-02-28 20:48:00,
2013-02-28 15:49:00,70.5,56.0,29.94,SW,215,1.0,7.0,60,0.00,,---,0.00,VWS V14.01,2013-02-28 20:49:00,
2013-02-28 15:52:00,70.4,55.9,29.93,West,262,3.0,6.0,60,0.00,,---,0.00,VWS V14.01,2013-02-28 20:52:00,
2013-02-28 15:53:00,70.3,56.2,29.93,WSW,240,2.0,7.0,61,0.00,,---,0.00,VWS V14.01,2013-02-28 20:53:00,
2013-02-28 15:54:00,70.3,56.2,29.93,WSW,240,3.0,7.0,61,0.00,,---,0.00,VWS V14.01,2013-02-28 20:54:00,
2013-02-28 15:58:00,70.0,56.4,29.93,WNW,285,3.0,6.0,62,0.00,,---,0.00,VWS V14.01,2013-02-28 20:58:00,
2013-02-28 15:59:00,70.0,56.4,29.93,SW,236,2.0,6.0,62,0.00,,---,0.00,VWS V14.01,2013-02-28 20:59:00,
2013-02-28 16:02:00,70.1,56.5,29.93,WSW,257,2.0,3.0,62,0.00,,---,0.00,VWS V14.01,2013-02-28 21:02:00,
2013-02-28 16:03:00,70.1,56.5,29.93,SW,231,8.0,8.0,62,0.00,,---,0.00,VWS V14.01,2013-02-28 21:03:00,
2013-02-28 16:04:00,70.2,56.6,29.93,SW,235,6.0,8.0,62,0.00,,---,0.00,VWS V14.01,2013-02-28 21:04:00,
2013-02-28 16:05:00,70.2,56.6,29.93,SW,227,7.0,9.0,62,0.00,,---,0.00,VWS V14.01,2013-02-28 21:05:00,
2013-02-28 16:08:00,70.2,56.1,29.93,SW,229,7.0,8.0,61,0.00,,---,0.00,VWS V14.01,2013-02-28 21:08:00,
2013-02-28 16:10:00,70.1,56.0,29.93,SSW,210,1.0,8.0,61,0.00,,---,0.00,VWS V14.01,2013-02-28 21:10:00,
2013-02-28 16:13:00,70.0,56.8,29.93,West,264,2.0,8.0,63,0.00,,---,0.00,VWS V14.01,2013-02-28 21:13:00,
2013-02-28 16:15:00,70.0,56.4,29.93,SW,225,1.0,8.0,62,0.00,,---,0.00,VWS V14.01,2013-02-28 21:15:00,
2013-02-28 16:18:00,70.1,56.5,29.93,SW,218,5.0,7.0,62,0.00,,---,0.00,VWS V14.01,2013-02-28 21:18:00,
2013-02-28 16:19:00,70.1,56.0,29.93,South,184,3.0,10.0,61,0.00,,---,0.00,VWS V14.01,2013-02-28 21:19:00,
2013-02-28 16:20:00,70.0,56.4,29.93,SSW,209,3.0,10.0,62,0.00,,---,0.00,VWS V14.01,2013-02-28 21:20:00,
2013-02-28 16:23:00,69.8,55.8,29.93,SSW,197,2.0,7.0,61,0.00,,---,0.00,VWS V14.01,2013-02-28 21:23:00,
2013-02-28 16:24:00,69.8,56.2,29.93,WNW,288,4.0,7.0,62,0.00,,---,0.00,VWS V14.01,2013-02-28 21:24:00,
2013-02-28 16:26:00,69.8,56.7,29.93,SW,220,2.0,2.0,63,0.00,,---,0.00,VWS V14.01,2013-02-28 21:26:00,
2013-02-28 16:28:00,69.9,56.3,29.93,SSW,194,1.0,5.0,62,0.00,,---,0.00,VWS V14.01,2013-02-28 21:28:00,
2013-02-28 16:29:00,69.9,56.8,29.93,SW,216,2.0,5.0,63,0.00,,---,0.00,VWS V14.01,2013-02-28 21:29:00,
2013-02-28 16:30:00,70.0,56.4,29.93,West,267,1.0,5.0,62,0.00,,---,0.00,VWS V14.01,2013-02-28 21:30:00,
2013-02-28 16:32:00,70.0,56.4,29.93,WSW,240,2.0,5.0,62,0.00,,---,0.00,VWS V14.01,2013-02-28 21:32:00,
2013-02-28 16:33:00,70.0,56.0,29.93,West,259,1.0,5.0,61,0.00,,---,0.00,VWS V14.01,2013-02-28 21:33:00,
2013-02-28 16:34:00,70.0,56.0,29.93,WSW,257,1.0,5.0,61,0.00,,---,0.00,VWS V14.01,2013-02-28 21:34:00,
2013-02-28 16:35:00,69.9,55.8,29.93,SW,229,2.0,5.0,61,0.00,,---,0.00,VWS V14.01,2013-02-28 21:35:00,
2013-02-28 16:38:00,69.7,55.7,29.92,West,259,4.0,7.0,61,0.00,,---,0.00,VWS V14.01,2013-02-28 21:38:00,
2013-02-28 16:39:00,69.7,56.1,29.92,WSW,241,3.0,7.0,62,0.00,,---,0.00,VWS V14.01,2013-02-28 21:39:00,
2013-02-28 16:40:00,69.5,55.9,29.92,SW,236,1.0,7.0,62,0.00,,---,0.00,VWS V14.01,2013-02-28 21:40:00,
2013-02-28 16:42:00,69.3,56.2,29.92,West,262,2.0,6.0,63,0.00,,---,0.00,VWS V14.01,2013-02-28 21:42:00,
2013-02-28 16:44:00,69.2,56.5,29.93,South,186,2.0,6.0,64,0.00,,---,0.00,VWS V14.01,2013-02-28 21:44:00,
2013-02-28 16:46:00,69.3,56.6,29.92,SW,226,2.0,6.0,64,0.00,,---,0.00,VWS V14.01,2013-02-28 21:46:00,
2013-02-28 16:47:00,69.4,56.3,29.93,WNW,297,1.0,3.0,63,0.00,,---,0.00,VWS V14.01,2013-02-28 21:47:00,
2013-02-28 16:49:00,69.4,56.3,29.93,SW,230,3.0,6.0,63,0.00,,---,0.00,VWS V14.01,2013-02-28 21:49:00,
2013-02-28 16:50:00,69.5,56.8,29.93,SW,230,2.0,6.0,64,0.00,,---,0.00,VWS V14.01,2013-02-28 21:50:00,
2013-02-28 16:52:00,69.7,57.0,29.93,WSW,238,1.0,3.0,64,0.00,,---,0.00,VWS V14.01,2013-02-28 21:52:00,
2013-02-28 16:53:00,69.7,56.6,29.93,WSW,238,3.0,3.0,63,0.00,,---,0.00,VWS V14.01,2013-02-28 21:53:00,
2013-02-28 16:54:00,69.7,56.6,29.93,SSW,201,1.0,7.0,63,0.00,,---,0.00,VWS V14.01,2013-02-28 21:54:00,
2013-02-28 16:55:00,69.7,56.6,29.93,SSW,203,0.0,7.0,63,0.00,,---,0.00,VWS V14.01,2013-02-28 21:55:00,
2013-02-28 16:58:00,69.6,56.5,29.93,WSW,250,0.0,6.0,63,0.00,,---,0.00,VWS V14.01,2013-02-28 21:58:00,
2013-02-28 16:59:00,69.6,56.5,29.93,WSW,252,3.0,6.0,63,0.00,,---,0.00,VWS V14.01,2013-02-28 21:59:00,
2013-02-28 17:01:00,69.5,56.4,29.93,West,265,4.0,4.0,63,0.00,,---,0.00,VWS V14.01,2013-02-28 22:01:00,
2013-02-28 17:04:00,69.3,56.2,29.93,WNW,297,3.0,4.0,63,0.00,,---,0.00,VWS V14.01,2013-02-28 22:04:00,
2013-02-28 17:05:00,69.2,56.1,29.93,SW,234,4.0,6.0,63,0.00,,---,0.00,VWS V14.01,2013-02-28 22:05:00,
2013-02-28 17:06:00,68.9,56.2,29.93,WSW,253,5.0,5.0,64,0.00,,---,0.00,VWS V14.01,2013-02-28 22:06:00,
2013-02-28 17:10:00,68.7,56.5,29.93,WSW,250,0.0,5.0,65,0.00,,---,0.00,VWS V14.01,2013-02-28 22:10:00,
2013-02-28 17:11:00,68.7,56.9,29.93,West,263,2.0,5.0,66,0.00,,---,0.00,VWS V14.01,2013-02-28 22:11:00,
2013-02-28 17:13:00,68.6,56.4,29.93,SW,221,3.0,8.0,65,0.00,,---,0.00,VWS V14.01,2013-02-28 22:13:00,
2013-02-28 17:15:00,68.5,56.3,29.93,WSW,245,4.0,8.0,65,0.00,,---,0.00,VWS V14.01,2013-02-28 22:15:00,
2013-02-28 17:17:00,68.4,56.2,29.93,West,268,6.0,6.0,65,0.00,,---,0.00,VWS V14.01,2013-02-28 22:17:00,
2013-02-28 17:19:00,68.2,55.1,29.93,WSW,245,2.0,8.0,63,0.00,,---,0.00,VWS V14.01,2013-02-28 22:19:00,
2013-02-28 17:21:00,68.1,55.0,29.93,WSW,248,3.0,8.0,63,0.00,,---,0.00,VWS V14.01,2013-02-28 22:21:00,
2013-02-28 17:22:00,68.0,55.0,29.93,West,280,5.0,5.0,63,0.00,,---,0.00,VWS V14.01,2013-02-28 22:22:00,
2013-02-28 17:25:00,67.8,55.2,29.93,WSW,238,2.0,8.0,64,0.00,,---,0.00,VWS V14.01,2013-02-28 22:25:00,
2013-02-28 17:26:00,67.7,55.1,29.94,SW,222,4.0,4.0,64,0.00,,---,0.00,VWS V14.01,2013-02-28 22:26:00,
2013-02-28 17:27:00,67.5,54.9,29.94,West,263,2.0,7.0,64,0.00,,---,0.00,VWS V14.01,2013-02-28 22:27:00,
2013-02-28 17:30:00,67.3,55.2,29.94,WNW,285,1.0,7.0,65,0.00,,---,0.00,VWS V14.01,2013-02-28 22:30:00,
2013-02-28 17:31:00,67.3,55.2,29.94,WNW,285,1.0,7.0,65,0.00,,---,0.00,VWS V14.01,2013-02-28 22:31:00,
2013-02-28 17:33:00,67.3,55.6,29.94,WNW,291,4.0,8.0,66,0.00,,---,0.00,VWS V14.01,2013-02-28 22:33:00,
2013-02-28 17:36:00,67.2,55.5,29.94,WSW,252,1.0,8.0,66,0.00,,---,0.00,VWS V14.01,2013-02-28 22:36:00,
2013-02-28 17:37:00,67.2,55.5,29.94,SW,222,5.0,6.0,66,0.00,,---,0.00,VWS V14.01,2013-02-28 22:37:00,
2013-02-28 17:39:00,67.2,55.9,29.94,SW,223,9.0,9.0,67,0.00,,---,0.00,VWS V14.01,2013-02-28 22:39:00,
2013-02-28 17:41:00,67.0,55.7,29.95,SSW,212,3.0,3.0,67,0.00,,---,0.00,VWS V14.01,2013-02-28 22:41:00,
2013-02-28 17:42:00,66.8,55.5,29.95,SSW,203,6.0,8.0,67,0.00,,---,0.00,VWS V14.01,2013-02-28 22:42:00,
2013-02-28 17:44:00,66.5,55.6,29.95,WSW,252,2.0,9.0,68,0.00,,---,0.00,VWS V14.01,2013-02-28 22:44:00,
2013-02-28 17:46:00,66.3,55.8,29.95,SW,236,1.0,4.0,69,0.00,,---,0.00,VWS V14.01,2013-02-28 22:46:00,
2013-02-28 17:49:00,66.1,55.7,29.94,WSW,238,4.0,4.0,69,0.00,,---,0.00,VWS V14.01,2013-02-28 22:49:00,
2013-02-28 17:51:00,65.9,55.8,29.95,West,273,2.0,7.0,70,0.00,,---,0.00,VWS V14.01,2013-02-28 22:51:00,
2013-02-28 17:52:00,65.8,56.2,29.95,WSW,243,7.0,7.0,71,0.00,,---,0.00,VWS V14.01,2013-02-28 22:52:00,
2013-02-28 17:54:00,65.7,56.0,29.94,WSW,246,2.0,8.0,71,0.00,,---,0.00,VWS V14.01,2013-02-28 22:54:00,
2013-02-28 17:57:00,65.4,55.8,29.95,SW,225,0.0,5.0,71,0.00,,---,0.00,VWS V14.01,2013-02-28 22:57:00,
2013-02-28 17:58:00,65.3,55.7,29.94,West,266,1.0,5.0,71,0.00,,---,0.00,VWS V14.01,2013-02-28 22:58:00,
2013-02-28 17:59:00,65.3,56.0,29.94,WNW,296,1.0,5.0,72,0.00,,---,0.00,VWS V14.01,2013-02-28 22:59:00,
2013-02-28 18:00:00,65.3,56.0,29.95,WNW,296,0.0,5.0,72,0.00,,---,0.00,VWS V14.01,2013-02-28 23:00:00,
2013-02-28 18:02:00,65.2,56.3,29.95,West,274,1.0,3.0,73,0.00,,---,0.00,VWS V14.01,2013-02-28 23:02:00,
2013-02-28 18:04:00,65.1,56.2,29.95,West,263,2.0,3.0,73,0.00,,---,0.00,VWS V14.01,2013-02-28 23:04:00,
2013-02-28 18:05:00,65.1,56.6,29.95,SSE,161,1.0,5.0,74,0.00,,---,0.00,VWS V14.01,2013-02-28 23:05:00,
2013-02-28 18:09:00,64.9,56.8,29.95,SW,214,2.0,7.0,75,0.00,,---,0.00,VWS V14.01,2013-02-28 23:09:00,
2013-02-28 18:10:00,64.8,57.1,29.95,NW,311,3.0,7.0,76,0.00,,---,0.00,VWS V14.01,2013-02-28 23:10:00,
2013-02-28 18:11:00,64.8,57.1,29.95,WNW,286,2.0,7.0,76,0.00,,---,0.00,VWS V14.01,2013-02-28 23:11:00,
2013-02-28 18:12:00,64.7,57.3,29.95,WSW,241,3.0,7.0,77,0.00,,---,0.00,VWS V14.01,2013-02-28 23:12:00,
2013-02-28 18:15:00,64.5,57.5,29.95,West,270,1.0,7.0,78,0.00,,---,0.00,VWS V14.01,2013-02-28 23:15:00,
2013-02-28 18:16:00,64.5,57.5,29.95,SW,232,2.0,7.0,78,0.00,,---,0.00,VWS V14.01,2013-02-28 23:16:00,
2013-02-28 18:18:00,64.3,57.7,29.95,West,281,2.0,6.0,79,0.00,,---,0.00,VWS V14.01,2013-02-28 23:18:00,
2013-02-28 18:21:00,64.1,57.8,29.95,WSW,238,3.0,6.0,80,0.00,,---,0.00,VWS V14.01,2013-02-28 23:21:00,
2013-02-28 18:22:00,64.0,58.1,29.95,WSW,241,1.0,3.0,81,0.00,,---,0.00,VWS V14.01,2013-02-28 23:22:00,
2013-02-28 18:23:00,64.0,58.1,29.95,WSW,241,1.0,3.0,81,0.00,,---,0.00,VWS V14.01,2013-02-28 23:23:00,
2013-02-28 18:27:00,63.7,57.4,29.95,West,262,2.0,3.0,80,0.00,,---,0.00,VWS V14.01,2013-02-28 23:27:00,
2013-02-28 18:28:00,63.6,57.7,29.95,WNW,283,4.0,4.0,81,0.00,,---,0.00,VWS V14.01,2013-02-28 23:28:00,
2013-02-28 18:29:00,63.6,57.3,29.95,West,277,1.0,4.0,80,0.00,,---,0.00,VWS V14.01,2013-02-28 23:29:00,
2013-02-28 18:32:00,63.4,57.1,29.95,West,265,2.0,5.0,80,0.00,,---,0.00,VWS V14.01,2013-02-28 23:32:00,
2013-02-28 18:33:00,63.4,57.1,29.95,West,266,2.0,5.0,80,0.00,,---,0.00,VWS V14.01,2013-02-28 23:33:00,
2013-02-28 18:35:00,63.3,56.7,29.95,SSW,205,1.0,5.0,79,0.00,,---,0.00,VWS V14.01,2013-02-28 23:35:00,
2013-02-28 18:37:00,63.1,56.5,29.96,SW,227,2.0,4.0,79,0.00,,---,0.00,VWS V14.01,2013-02-28 23:37:00,
2013-02-28 18:39:00,63.1,56.8,29.96,West,277,2.0,4.0,80,0.00,,---,0.00,VWS V14.01,2013-02-28 23:39:00,
2013-02-28 18:40:00,63.1,56.8,29.96,West,263,0.0,4.0,80,0.00,,---,0.00,VWS V14.01,2013-02-28 23:40:00,
2013-02-28 18:41:00,63.0,56.7,29.96,West,263,0.0,0.0,80,0.00,,---,0.00,VWS V14.01,2013-02-28 23:41:00,
2013-02-28 18:43:00,63.0,56.7,29.96,West,263,1.0,3.0,80,0.00,,---,0.00,VWS V14.01,2013-02-28 23:43:00,
2013-02-28 18:45:00,62.9,56.6,29.96,West,259,2.0,3.0,80,0.00,,---,0.00,VWS V14.01,2013-02-28 23:45:00,
2013-02-28 18:46:00,62.9,56.6,29.96,WNW,284,1.0,2.0,80,0.00,,---,0.00,VWS V14.01,2013-02-28 23:46:00,
2013-02-28 18:47:00,62.9,56.6,29.96,WNW,283,2.0,2.0,80,0.00,,---,0.00,VWS V14.01,2013-02-28 23:47:00,
2013-02-28 18:50:00,62.7,56.1,29.96,WSW,255,0.0,2.0,79,0.00,,---,0.00,VWS V14.01,2013-02-28 23:50:00,
2013-02-28 18:52:00,62.7,55.8,29.96,West,274,1.0,3.0,78,0.00,,---,0.00,VWS V14.01,2013-02-28 23:52:00,
2013-02-28 18:53:00,62.7,55.4,29.96,West,264,0.0,3.0,77,0.00,,---,0.00,VWS V14.01,2013-02-28 23:53:00,
2013-02-28 18:56:00,62.5,55.2,29.96,SW,233,2.0,4.0,77,0.00,,---,0.00,VWS V14.01,2013-02-28 23:56:00,
2013-02-28 18:57:00,62.4,54.8,29.96,West,267,3.0,3.0,76,0.00,,---,0.00,VWS V14.01,2013-02-28 23:57:00,
2013-02-28 18:58:00,62.4,54.8,29.96,West,269,2.0,4.0,76,0.00,,---,0.00,VWS V14.01,2013-02-28 23:58:00,
2013-02-28 18:59:00,62.4,54.4,29.96,West,269,1.0,4.0,75,0.00,,---,0.00,VWS V14.01,2013-02-28 23:59:00,
2013-02-28 19:01:00,62.3,53.5,29.96,NW,317,1.0,1.0,73,0.00,,---,0.00,VWS V14.01,2013-03-01 00:01:00,
2013-02-28 19:03:00,62.3,53.9,29.96,WNW,288,2.0,2.0,74,0.00,,---,0.00,VWS V14.01,2013-03-01 00:03:00,
2013-02-28 19:05:00,62.2,53.8,29.96,WNW,288,2.0,5.0,74,0.00,,---,0.00,VWS V14.01,2013-03-01 00:05:00,
2013-02-28 19:06:00,62.2,53.8,29.96,WSW,240,2.0,2.0,74,0.00,,---,0.00,VWS V14.01,2013-03-01 00:06:00,
2013-02-28 19:08:00,62.1,54.1,29.97,West,269,1.0,5.0,75,0.00,,---,0.00,VWS V14.01,2013-03-01 00:08:00,
2013-02-28 19:10:00,62.0,53.3,29.96,West,279,1.0,5.0,73,0.00,,---,0.00,VWS V14.01,2013-03-01 00:10:00,
2013-02-28 19:12:00,62.0,52.9,29.97,West,279,1.0,2.0,72,0.00,,---,0.00,VWS V14.01,2013-03-01 00:12:00,
2013-02-28 19:14:00,61.9,52.4,29.97,West,261,1.0,7.0,71,0.00,,---,0.00,VWS V14.01,2013-03-01 00:14:00,
2013-02-28 19:15:00,61.9,52.8,29.97,West,279,3.0,7.0,72,0.00,,---,0.00,VWS V14.01,2013-03-01 00:15:00,
2013-02-28 19:16:00,61.8,52.7,29.97,SW,223,1.0,4.0,72,0.00,,---,0.00,VWS V14.01,2013-03-01 00:16:00,
2013-02-28 19:17:00,61.8,51.9,29.97,WNW,285,2.0,4.0,70,0.00,,---,0.00,VWS V14.01,2013-03-01 00:17:00,
2013-02-28 19:19:00,61.8,51.9,29.97,WSW,244,1.0,4.0,70,0.00,,---,0.00,VWS V14.01,2013-03-01 00:19:00,
2013-02-28 19:21:00,61.8,51.9,29.97,West,261,1.0,4.0,70,0.00,,---,0.00,VWS V14.01,2013-03-01 00:21:00,
2013-02-28 19:22:00,61.7,51.4,29.97,West,259,2.0,3.0,69,0.00,,---,0.00,VWS V14.01,2013-03-01 00:22:00,
2013-02-28 19:24:00,61.7,51.8,29.97,WSW,258,0.0,5.0,70,0.00,,---,0.00,VWS V14.01,2013-03-01 00:24:00,
2013-02-28 19:25:00,61.7,51.8,29.97,WSW,258,1.0,5.0,70,0.00,,---,0.00,VWS V14.01,2013-03-01 00:25:00,
2013-02-28 19:26:00,61.6,51.7,29.97,SW,225,1.0,1.0,70,0.00,,---,0.00,VWS V14.01,2013-03-01 00:26:00,
2013-02-28 19:27:00,61.6,51.7,29.97,WSW,254,2.0,5.0,70,0.00,,---,0.00,VWS V14.01,2013-03-01 00:27:00,
2013-02-28 19:29:00,61.5,52.0,29.97,WSW,254,0.0,5.0,71,0.00,,---,0.00,VWS V14.01,2013-03-01 00:29:00,
2013-02-28 19:31:00,61.5,52.0,29.97,WSW,254,2.0,5.0,71,0.00,,---,0.00,VWS V14.01,2013-03-01 00:31:00,
2013-02-28 19:33:00,61.4,52.3,29.97,SSW,211,1.0,4.0,72,0.00,,---,0.00,VWS V14.01,2013-03-01 00:33:00,
2013-02-28 19:34:00,61.4,52.3,29.97,West,261,0.0,4.0,72,0.00,,---,0.00,VWS V14.01,2013-03-01 00:34:00,
2013-02-28 19:36:00,61.4,52.3,29.97,SSW,205,1.0,6.0,72,0.00,,---,0.00,VWS V14.01,2013-03-01 00:36:00,
2013-02-28 19:40:00,61.3,52.6,29.98,WSW,240,1.0,4.0,73,0.00,,---,0.00,VWS V14.01,2013-03-01 00:40:00,
2013-02-28 19:41:00,61.3,52.2,29.98,WSW,240,0.0,0.0,72,0.00,,---,0.00,VWS V14.01,2013-03-01 00:41:00,
2013-02-28 19:42:00,61.2,52.1,29.98,WSW,257,2.0,5.0,72,0.00,,---,0.00,VWS V14.01,2013-03-01 00:42:00,
2013-02-28 19:45:00,61.2,52.5,29.98,West,259,1.0,5.0,73,0.00,,---,0.00,VWS V14.01,2013-03-01 00:45:00,
2013-02-28 19:46:00,61.1,52.4,29.98,West,259,1.0,1.0,73,0.00,,---,0.00,VWS V14.01,2013-03-01 00:46:00,
2013-02-28 19:47:00,61.1,52.4,29.98,West,259,1.0,1.0,73,0.00,,---,0.00,VWS V14.01,2013-03-01 00:47:00,
2013-02-28 19:51:00,61.0,52.3,29.98,West,273,2.0,2.0,73,0.00,,---,0.00,VWS V14.01,2013-03-01 00:51:00,
2013-02-28 19:52:00,60.9,52.2,29.98,WSW,246,1.0,3.0,73,0.00,,---,0.00,VWS V14.01,2013-03-01 00:52:00,
2013-02-28 19:53:00,60.9,52.2,29.98,WSW,246,0.0,3.0,73,0.00,,---,0.00,VWS V14.01,2013-03-01 00:53:00,
2013-02-28 19:56:00,60.8,52.1,29.98,WSW,250,1.0,2.0,73,0.00,,---,0.00,VWS V14.01,2013-03-01 00:56:00,
2013-02-28 19:57:00,60.8,51.7,29.98,West,275,1.0,2.0,72,0.00,,---,0.00,VWS V14.01,2013-03-01 00:57:00,
2013-02-28 19:58:00,60.7,51.6,29.98,West,275,1.0,2.0,72,0.00,,---,0.00,VWS V14.01,2013-03-01 00:58:00,
2013-02-28 20:00:00,60.7,51.6,29.98,West,275,0.0,2.0,72,0.00,,---,0.00,VWS V14.01,2013-03-01 01:00:00,
2013-02-28 20:04:00,60.6,51.5,29.98,West,267,1.0,4.0,72,0.00,,---,0.00,VWS V14.01,2013-03-01 01:04:00,
2013-02-28 20:06:00,60.5,51.8,29.98,WNW,284,0.0,0.0,73,0.00,,---,0.00,VWS V14.01,2013-03-01 01:06:00,
2013-02-28 20:09:00,60.4,51.7,29.98,WNW,284,0.0,1.0,73,0.00,,---,0.00,VWS V14.01,2013-03-01 01:09:00,
2013-02-28 20:10:00,60.4,51.7,29.98,WNW,284,1.0,1.0,73,0.00,,---,0.00,VWS V14.01,2013-03-01 01:10:00,
2013-02-28 20:11:00,60.3,51.6,29.98,WNW,284,0.0,0.0,73,0.00,,---,0.00,VWS V14.01,2013-03-01 01:11:00,
2013-02-28 20:15:00,60.1,51.4,29.98,WNW,284,1.0,1.0,73,0.00,,---,0.00,VWS V14.01,2013-03-01 01:15:00,
2013-02-28 20:17:00,60.0,51.7,29.98,WSW,257,0.0,0.0,74,0.00,,---,0.00,VWS V14.01,2013-03-01 01:17:00,
2013-02-28 20:20:00,59.8,51.5,29.98,WSW,257,0.0,1.0,74,0.00,,---,0.00,VWS V14.01,2013-03-01 01:20:00,
2013-02-28 20:21:00,59.8,51.5,29.98,WSW,257,0.0,1.0,74,0.00,,---,0.00,VWS V14.01,2013-03-01 01:21:00,
2013-02-28 20:23:00,59.7,51.4,29.98,WSW,257,0.0,1.0,74,0.00,,---,0.00,VWS V14.01,2013-03-01 01:23:00,
2013-02-28 20:26:00,59.6,51.3,29.98,WSW,257,0.0,3.0,74,0.00,,---,0.00,VWS V14.01,2013-03-01 01:26:00,
2013-02-28 20:28:00,59.5,51.2,29.98,WSW,257,1.0,2.0,74,0.00,,---,0.00,VWS V14.01,2013-03-01 01:28:00,
2013-02-28 20:31:00,59.5,51.2,29.98,SW,223,0.0,3.0,74,0.00,,---,0.00,VWS V14.01,2013-03-01 01:31:00,
2013-02-28 20:35:00,59.3,51.4,29.97,West,279,2.0,3.0,75,0.00,,---,0.00,VWS V14.01,2013-03-01 01:35:00,
2013-02-28 20:37:00,59.3,51.0,29.97,West,267,2.0,4.0,74,0.00,,---,0.00,VWS V14.01,2013-03-01 01:37:00,
2013-02-28 20:38:00,59.3,50.7,29.97,SW,219,1.0,4.0,73,0.00,,---,0.00,VWS V14.01,2013-03-01 01:38:00,
2013-02-28 20:40:00,59.3,50.7,29.98,West,279,1.0,4.0,73,0.00,,---,0.00,VWS V14.01,2013-03-01 01:40:00,
2013-02-28 20:42:00,59.3,50.3,29.97,WNW,298,0.0,4.0,72,0.00,,---,0.00,VWS V14.01,2013-03-01 01:42:00,
2013-02-28 20:43:00,59.3,50.3,29.97,WNW,298,0.0,4.0,72,0.00,,---,0.00,VWS V14.01,2013-03-01 01:43:00,
2013-02-28 20:46:00,59.2,50.6,29.97,WSW,247,0.0,4.0,73,0.00,,---,0.00,VWS V14.01,2013-03-01 01:46:00,
2013-02-28 20:48:00,59.2,50.2,29.97,WSW,248,0.0,2.0,72,0.00,,---,0.00,VWS V14.01,2013-03-01 01:48:00,
2013-02-28 20:49:00,59.2,50.6,29.97,WSW,248,0.0,2.0,73,0.00,,---,0.00,VWS V14.01,2013-03-01 01:49:00,
2013-02-28 20:51:00,59.1,50.5,29.97,WSW,248,1.0,1.0,73,0.00,,---,0.00,VWS V14.01,2013-03-01 01:51:00,
2013-02-28 20:53:00,59.1,50.5,29.97,NNW,338,0.0,7.0,73,0.00,,---,0.00,VWS V14.01,2013-03-01 01:53:00,
2013-02-28 20:54:00,59.1,50.5,29.97,NNW,338,0.0,7.0,73,0.00,,---,0.00,VWS V14.01,2013-03-01 01:54:00,
2013-02-28 20:55:00,59.0,50.4,29.97,West,262,5.0,7.0,73,0.00,,---,0.00,VWS V14.01,2013-03-01 01:55:00,
2013-02-28 20:57:00,59.0,50.4,29.97,West,263,3.0,4.0,73,0.00,,---,0.00,VWS V14.01,2013-03-01 01:57:00,
2013-02-28 20:58:00,59.0,50.4,29.97,WSW,240,1.0,5.0,73,0.00,,---,0.00,VWS V14.01,2013-03-01 01:58:00,
2013-02-28 21:00:00,59.0,50.4,29.97,WSW,241,0.0,5.0,73,0.00,,---,0.00,VWS V14.01,2013-03-01 02:00:00,
2013-02-28 21:03:00,59.0,50.4,29.97,SSW,195,0.0,3.0,73,0.00,,---,0.00,VWS V14.01,2013-03-01 02:03:00,
2013-02-28 21:04:00,59.0,50.4,29.97,West,261,1.0,3.0,73,0.00,,---,0.00,VWS V14.01,2013-03-01 02:04:00,
2013-02-28 21:05:00,59.0,50.4,29.97,West,261,0.0,3.0,73,0.00,,---,0.00,VWS V14.01,2013-03-01 02:05:00,
2013-02-28 21:07:00,58.9,50.3,29.97,West,261,0.0,0.0,73,0.00,,---,0.00,VWS V14.01,2013-03-01 02:07:00,
2013-02-28 21:09:00,58.9,50.3,29.97,West,261,1.0,1.0,73,0.00,,---,0.00,VWS V14.01,2013-03-01 02:09:00,
2013-02-28 21:10:00,58.9,50.3,29.97,WSW,255,1.0,2.0,73,0.00,,---,0.00,VWS V14.01,2013-03-01 02:10:00,
2013-02-28 21:12:00,58.8,50.2,29.97,SW,228,1.0,2.0,73,0.00,,---,0.00,VWS V14.01,2013-03-01 02:12:00,
2013-02-28 21:15:00,58.8,50.5,29.97,SW,228,2.0,2.0,74,0.00,,---,0.00,VWS V14.01,2013-03-01 02:15:00,
2013-02-28 21:18:00,58.7,50.1,29.98,WSW,237,0.0,1.0,73,0.00,,---,0.00,VWS V14.01,2013-03-01 02:18:00,
2013-02-28 21:19:00,58.6,50.0,29.98,WSW,237,2.0,2.0,73,0.00,,---,0.00,VWS V14.01,2013-03-01 02:19:00,
2013-02-28 21:20:00,58.6,50.0,29.98,WSW,237,0.0,2.0,73,0.00,,---,0.00,VWS V14.01,2013-03-01 02:20:00,
2013-02-28 21:23:00,58.6,49.6,29.97,WSW,237,2.0,2.0,72,0.00,,---,0.00,VWS V14.01,2013-03-01 02:23:00,
2013-02-28 21:26:00,58.5,49.5,29.97,WSW,237,1.0,3.0,72,0.00,,---,0.00,VWS V14.01,2013-03-01 02:26:00,
2013-02-28 21:27:00,58.5,49.5,29.98,WSW,237,1.0,1.0,72,0.00,,---,0.00,VWS V14.01,2013-03-01 02:27:00,
2013-02-28 21:28:00,58.5,49.5,29.98,WSW,237,0.0,1.0,72,0.00,,---,0.00,VWS V14.01,2013-03-01 02:28:00,
2013-02-28 21:30:00,58.5,49.5,29.98,WSW,238,2.0,2.0,72,0.00,,---,0.00,VWS V14.01,2013-03-01 02:30:00,
2013-02-28 21:32:00,58.4,49.4,29.98,West,259,3.0,3.0,72,0.00,,---,0.00,VWS V14.01,2013-03-01 02:32:00,
2013-02-28 21:33:00,58.4,49.4,29.98,WSW,243,0.0,3.0,72,0.00,,---,0.00,VWS V14.01,2013-03-01 02:33:00,
2013-02-28 21:34:00,58.4,49.8,29.98,WSW,243,0.0,3.0,73,0.00,,---,0.00,VWS V14.01,2013-03-01 02:34:00,
2013-02-28 21:35:00,58.4,49.4,29.98,WSW,240,0.0,3.0,72,0.00,,---,0.00,VWS V14.01,2013-03-01 02:35:00,
2013-02-28 21:37:00,58.3,49.3,29.98,WSW,253,0.0,3.0,72,0.00,,---,0.00,VWS V14.01,2013-03-01 02:37:00,
2013-02-28 21:38:00,58.3,49.3,29.98,WSW,253,1.0,3.0,72,0.00,,---,0.00,VWS V14.01,2013-03-01 02:38:00,
2013-02-28 21:39:00,58.3,49.3,29.98,West,259,2.0,3.0,72,0.00,,---,0.00,VWS V14.01,2013-03-01 02:39:00,
2013-02-28 21:41:00,58.3,49.3,29.98,WSW,243,0.0,4.0,72,0.00,,---,0.00,VWS V14.01,2013-03-01 02:41:00,
2013-02-28 21:43:00,58.3,49.3,29.98,WSW,246,0.0,2.0,72,0.00,,---,0.00,VWS V14.01,2013-03-01 02:43:00,
2013-02-28 21:44:00,58.2,49.2,29.98,WSW,246,0.0,2.0,72,0.00,,---,0.00,VWS V14.01,2013-03-01 02:44:00,
2013-02-28 21:46:00,58.2,49.2,29.98,WSW,246,0.0,2.0,72,0.00,,---,0.00,VWS V14.01,2013-03-01 02:46:00,
2013-02-28 21:47:00,58.2,49.2,29.98,WSW,246,0.0,1.0,72,0.00,,---,0.00,VWS V14.01,2013-03-01 02:47:00,
2013-02-28 21:48:00,58.2,48.8,29.98,West,259,2.0,2.0,71,0.00,,---,0.00,VWS V14.01,2013-03-01 02:48:00,
2013-02-28 21:52:00,58.2,48.8,29.98,SW,218,0.0,0.0,71,0.00,,---,0.00,VWS V14.01,2013-03-01 02:52:00,
2013-02-28 21:53:00,58.2,48.8,29.98,SW,218,0.0,0.0,71,0.00,,---,0.00,VWS V14.01,2013-03-01 02:53:00,
2013-02-28 21:56:00,58.2,48.8,29.98,SW,218,0.0,1.0,71,0.00,,---,0.00,VWS V14.01,2013-03-01 02:56:00,
2013-02-28 21:57:00,58.1,48.8,29.98,WSW,242,3.0,3.0,71,0.00,,---,0.00,VWS V14.01,2013-03-01 02:57:00,
2013-02-28 21:58:00,58.2,48.8,29.99,SW,226,0.0,5.0,71,0.00,,---,0.00,VWS V14.01,2013-03-01 02:58:00,
2013-02-28 22:01:00,58.1,48.8,29.99,SW,226,2.0,2.0,71,0.00,,---,0.00,VWS V14.01,2013-03-01 03:01:00,
2013-02-28 22:02:00,58.1,48.8,29.99,SW,226,1.0,2.0,71,0.00,,---,0.00,VWS V14.01,2013-03-01 03:02:00,
2013-02-28 22:04:00,58.2,48.8,29.99,WSW,238,0.0,2.0,71,0.00,,---,0.00,VWS V14.01,2013-03-01 03:04:00,
2013-02-28 22:07:00,58.2,48.8,29.99,West,267,2.0,3.0,71,0.00,,---,0.00,VWS V14.01,2013-03-01 03:07:00,
2013-02-28 22:08:00,58.2,48.8,29.99,SW,232,4.0,4.0,71,0.00,,---,0.00,VWS V14.01,2013-03-01 03:08:00,
2013-02-28 22:09:00,58.2,48.8,29.99,SW,232,0.0,4.0,71,0.00,,---,0.00,VWS V14.01,2013-03-01 03:09:00,
2013-02-28 22:12:00,58.2,49.2,29.99,SW,232,0.0,2.0,72,0.00,,---,0.00,VWS V14.01,2013-03-01 03:12:00,
2013-02-28 22:14:00,58.2,49.2,29.98,WSW,238,3.0,3.0,72,0.00,,---,0.00,VWS V14.01,2013-03-01 03:14:00,
2013-02-28 22:15:00,58.2,49.2,29.98,WSW,238,0.0,3.0,72,0.00,,---,0.00,VWS V14.01,2013-03-01 03:15:00,
2013-02-28 22:17:00,58.2,49.2,29.98,West,264,0.0,5.0,72,0.00,,---,0.00,VWS V14.01,2013-03-01 03:17:00,
2013-02-28 22:20:00,58.1,49.5,29.99,West,264,2.0,5.0,73,0.00,,---,0.00,VWS V14.01,2013-03-01 03:20:00,
2013-02-28 22:22:00,58.1,49.5,29.98,West,278,2.0,3.0,73,0.00,,---,0.00,VWS V14.01,2013-03-01 03:22:00,
2013-02-28 22:23:00,58.1,49.5,29.99,West,278,0.0,3.0,73,0.00,,---,0.00,VWS V14.01,2013-03-01 03:23:00,
2013-02-28 22:25:00,58.1,49.5,29.99,West,273,0.0,3.0,73,0.00,,---,0.00,VWS V14.01,2013-03-01 03:25:00,
2013-02-28 22:26:00,58.1,49.5,29.99,West,273,0.0,3.0,73,0.00,,---,0.00,VWS V14.01,2013-03-01 03:26:00,
2013-02-28 22:27:00,58.1,49.9,29.99,West,269,1.0,1.0,74,0.00,,---,0.00,VWS V14.01,2013-03-01 03:27:00,
2013-02-28 22:30:00,58.0,49.4,29.99,West,279,0.0,3.0,73,0.00,,---,0.00,VWS V14.01,2013-03-01 03:30:00,
2013-02-28 22:31:00,58.0,49.4,29.99,WSW,240,2.0,5.0,73,0.00,,---,0.00,VWS V14.01,2013-03-01 03:31:00,
2013-02-28 22:32:00,58.1,49.5,29.99,SW,224,0.0,2.0,73,0.00,,---,0.00,VWS V14.01,2013-03-01 03:32:00,
2013-02-28 22:35:00,58.1,49.5,29.99,WSW,244,0.0,3.0,73,0.00,,---,0.00,VWS V14.01,2013-03-01 03:35:00,
2013-02-28 22:36:00,58.1,49.5,29.99,West,279,3.0,3.0,73,0.00,,---,0.00,VWS V14.01,2013-03-01 03:36:00,
2013-02-28 22:37:00,58.2,49.6,29.99,WSW,258,1.0,4.0,73,0.00,,---,0.00,VWS V14.01,2013-03-01 03:37:00,
2013-02-28 22:40:00,58.2,50.0,29.99,SW,227,2.0,4.0,74,0.00,,---,0.00,VWS V14.01,2013-03-01 03:40:00,
2013-02-28 22:41:00,58.2,49.6,29.99,SW,227,1.0,2.0,73,0.00,,---,0.00,VWS V14.01,2013-03-01 03:41:00,
2013-02-28 22:42:00,58.2,49.6,29.99,SW,227,1.0,2.0,73,0.00,,---,0.00,VWS V14.01,2013-03-01 03:42:00,
2013-02-28 22:43:00,58.2,50.0,29.99,SW,227,0.0,2.0,74,0.00,,---,0.00,VWS V14.01,2013-03-01 03:43:00,
2013-02-28 22:45:00,58.1,49.9,29.99,SW,227,0.0,2.0,74,0.00,,---,0.00,VWS V14.01,2013-03-01 03:45:00,
2013-02-28 22:47:00,58.1,49.9,29.99,SW,221,1.0,3.0,74,0.00,,---,0.00,VWS V14.01,2013-03-01 03:47:00,
2013-02-28 22:49:00,58.1,49.5,29.99,NNW,339,2.0,3.0,73,0.00,,---,0.00,VWS V14.01,2013-03-01 03:49:00,
2013-02-28 22:51:00,58.1,49.1,29.99,West,268,0.0,3.0,72,0.00,,---,0.00,VWS V14.01,2013-03-01 03:51:00,
2013-02-28 22:52:00,58.0,49.0,29.99,WSW,240,0.0,2.0,72,0.00,,---,0.00,VWS V14.01,2013-03-01 03:52:00,
2013-02-28 22:54:00,58.1,49.1,29.98,WSW,240,1.0,2.0,72,0.00,,---,0.00,VWS V14.01,2013-03-01 03:54:00,
2013-02-28 22:57:00,58.1,48.8,29.98,SSW,213,0.0,1.0,71,0.00,,---,0.00,VWS V14.01,2013-03-01 03:57:00,
2013-02-28 22:59:00,58.1,48.8,29.98,WSW,246,1.0,5.0,71,0.00,,---,0.00,VWS V14.01,2013-03-01 03:59:00,
2013-02-28 23:02:00,58.2,48.8,29.98,WSW,247,1.0,2.0,71,0.00,,---,0.00,VWS V14.01,2013-03-01 04:02:00,
2013-02-28 23:04:00,58.3,49.0,29.98,SW,225,0.0,2.0,71,0.00,,---,0.00,VWS V14.01,2013-03-01 04:04:00,
2013-02-28 23:05:00,58.3,49.0,29.98,SW,226,1.0,2.0,71,0.00,,---,0.00,VWS V14.01,2013-03-01 04:05:00,
2013-02-28 23:08:00,58.4,49.0,29.98,West,263,0.0,4.0,71,0.00,,---,0.00,VWS V14.01,2013-03-01 04:08:00,
2013-02-28 23:09:00,58.4,49.0,29.98,West,271,0.0,4.0,71,0.00,,---,0.00,VWS V14.01,2013-03-01 04:09:00,
2013-02-28 23:10:00,58.4,49.0,29.98,West,271,0.0,4.0,71,0.00,,---,0.00,VWS V14.01,2013-03-01 04:10:00,
2013-02-28 23:14:00,58.3,49.0,29.98,WSW,241,0.0,4.0,71,0.00,,---,0.00,VWS V14.01,2013-03-01 04:14:00,
2013-02-28 23:15:00,58.4,49.0,29.98,SSE,167,3.0,4.0,71,0.00,,---,0.00,VWS V14.01,2013-03-01 04:15:00,
2013-02-28 23:20:00,58.3,48.6,29.98,West,269,2.0,2.0,70,0.00,,---,0.00,VWS V14.01,2013-03-01 04:20:00,
2013-02-28 23:21:00,58.3,48.6,29.98,West,269,1.0,2.0,70,0.00,,---,0.00,VWS V14.01,2013-03-01 04:21:00,
2013-02-28 23:25:00,58.3,48.6,29.98,SW,230,1.0,3.0,70,0.00,,---,0.00,VWS V14.01,2013-03-01 04:25:00,
2013-02-28 23:26:00,58.3,48.6,29.98,SSW,212,1.0,4.0,70,0.00,,---,0.00,VWS V14.01,2013-03-01 04:26:00,
2013-02-28 23:27:00,58.3,48.6,29.98,NNW,333,2.0,4.0,70,0.00,,---,0.00,VWS V14.01,2013-03-01 04:27:00,
2013-02-28 23:28:00,58.3,48.6,29.97,SSW,211,1.0,4.0,70,0.00,,---,0.00,VWS V14.01,2013-03-01 04:28:00,
2013-02-28 23:31:00,58.3,48.6,29.97,West,261,1.0,1.0,70,0.00,,---,0.00,VWS V14.01,2013-03-01 04:31:00,
2013-02-28 23:32:00,58.3,48.6,29.97,West,263,2.0,2.0,70,0.00,,---,0.00,VWS V14.01,2013-03-01 04:32:00,
2013-02-28 23:33:00,58.3,48.6,29.97,West,263,1.0,2.0,70,0.00,,---,0.00,VWS V14.01,2013-03-01 04:33:00,
2013-02-28 23:34:00,58.3,48.6,29.97,West,263,0.0,2.0,70,0.00,,---,0.00,VWS V14.01,2013-03-01 04:34:00,
2013-02-28 23:36:00,58.3,48.6,29.98,WSW,240,1.0,2.0,70,0.00,,---,0.00,VWS V14.01,2013-03-01 04:36:00,
2013-02-28 23:38:00,58.3,48.6,29.97,West,260,1.0,4.0,70,0.00,,---,0.00,VWS V14.01,2013-03-01 04:38:00,
2013-02-28 23:39:00,58.3,48.6,29.98,NW,309,0.0,4.0,70,0.00,,---,0.00,VWS V14.01,2013-03-01 04:39:00,
2013-02-28 23:41:00,58.2,48.5,29.97,SW,231,2.0,3.0,70,0.00,,---,0.00,VWS V14.01,2013-03-01 04:41:00,
2013-02-28 23:44:00,58.3,48.6,29.97,SW,231,1.0,3.0,70,0.00,,---,0.00,VWS V14.01,2013-03-01 04:44:00,
2013-02-28 23:45:00,58.3,48.6,29.97,SW,231,2.0,3.0,70,0.00,,---,0.00,VWS V14.01,2013-03-01 04:45:00,
2013-02-28 23:46:00,58.3,48.6,29.97,SSW,199,1.0,4.0,70,0.00,,---,0.00,VWS V14.01,2013-03-01 04:46:00,
2013-02-28 23:47:00,58.3,48.6,29.97,SSW,199,0.0,1.0,70,0.00,,---,0.00,VWS V14.01,2013-03-01 04:47:00,
2013-02-28 23:50:00,58.3,49.0,29.97,West,279,2.0,2.0,71,0.00,,---,0.00,VWS V14.01,2013-03-01 04:50:00,
2013-02-28 23:51:00,58.4,49.0,29.97,WSW,243,1.0,1.0,71,0.00,,---,0.00,VWS V14.01,2013-03-01 04:51:00,
2013-02-28 23:53:00,58.4,49.0,29.97,SW,216,3.0,3.0,71,0.00,,---,0.00,VWS V14.01,2013-03-01 04:53:00,
2013-02-28 23:55:00,58.4,48.7,29.97,West,269,3.0,6.0,70,0.00,,---,0.00,VWS V14.01,2013-03-01 04:55:00,
2013-02-28 23:56:00,58.4,48.7,29.97,West,271,1.0,1.0,70,0.00,,---,0.00,VWS V14.01,2013-03-01 04:56:00,
2013-02-28 23:58:00,58.4,48.7,29.97,West,263,1.0,3.0,70,0.00,,---,0.00,VWS V14.01,2013-03-01 04:58:00,